Time,TemperatureF,DewpointF,PressureIn,WindDirection,WindDirectionDegrees,WindSpeedMPH,WindSpeedGustMPH,Humidity,HourlyPrecipIn,Conditions,Clouds,dailyrainin,SoftwareType,DateUTC
2014-01-19 06:22:00,15.0,11.3,-32.77,SW,219,0.0,4.0,85,0.00,,,0.04,Wunderground v.1.15,2014-01-19 11:22:00,
2014-01-19 06:23:00,15.0,11.3,-32.77,SW,220,0.0,4.0,85,0.00,,,0.04,Wunderground v.1.15,2014-01-19 11:23:00,
2014-01-19 06:25:00,15.0,11.3,-32.77,SSE,163,0.0,4.0,85,0.00,,,0.04,Wunderground v.1.15,2014-01-19 11:25:00,
2014-01-19 06:26:00,15.0,11.3,-32.77,SSE,163,0.0,4.0,85,0.00,,,0.04,Wunderground v.1.15,2014-01-19 11:26:00,
2014-01-19 06:28:00,15.0,11.3,-32.77,SSE,155,0.0,4.0,85,0.00,,,0.04,Wunderground v.1.15,2014-01-19 11:28:00,
2014-01-19 06:29:00,15.0,11.3,-32.77,SSE,155,0.0,4.0,85,0.00,,,0.04,Wunderground v.1.15,2014-01-19 11:29:00,
2014-01-19 06:33:00,14.9,11.2,-32.77,South,185,0.0,4.0,85,0.00,,,0.04,Wunderground v.1.15,2014-01-19 11:33:00,
2014-01-19 06:34:00,14.9,11.2,-32.77,SSE,156,0.0,4.0,85,0.00,,,0.04,Wunderground v.1.15,2014-01-19 11:34:00,
2014-01-19 06:38:00,15.0,11.3,-32.77,SSE,168,0.0,4.0,85,0.00,,,0.04,Wunderground v.1.15,2014-01-19 11:38:00,
2014-01-19 06:39:00,15.0,11.3,-32.77,SSE,168,0.0,4.0,85,0.00,,,0.04,Wunderground v.1.15,2014-01-19 11:39:00,
2014-01-19 06:40:00,14.9,11.2,-32.77,SSE,168,0.0,4.0,85,0.00,,,0.04,Wunderground v.1.15,2014-01-19 11:40:00,
2014-01-19 06:41:00,15.0,11.3,-32.77,SSE,168,0.0,4.0,85,0.00,,,0.04,Wunderground v.1.15,2014-01-19 11:41:00,
2014-01-19 06:46:00,14.9,11.2,-32.77,SSE,168,0.0,4.0,85,0.00,,,0.04,Wunderground v.1.15,2014-01-19 11:46:00,
2014-01-19 06:47:00,14.9,11.2,-32.77,SSE,168,0.0,4.0,85,0.00,,,0.04,Wunderground v.1.15,2014-01-19 11:47:00,
2014-01-19 06:48:00,14.9,11.2,-32.77,SSE,168,0.0,4.0,85,0.00,,,0.04,Wunderground v.1.15,2014-01-19 11:48:00,
2014-01-19 06:50:00,14.9,11.2,-32.77,SSE,165,0.0,4.0,85,0.00,,,0.04,Wunderground v.1.15,2014-01-19 11:50:00,
2014-01-19 06:52:00,14.9,11.2,-32.77,SSE,165,0.0,4.0,85,0.00,,,0.04,Wunderground v.1.15,2014-01-19 11:52:00,
2014-01-19 06:53:00,14.9,11.2,-32.77,SSE,168,0.0,4.0,85,0.00,,,0.04,Wunderground v.1.15,2014-01-19 11:53:00,
2014-01-19 06:56:00,14.9,11.2,-32.77,SSE,168,0.0,4.0,85,0.00,,,0.04,Wunderground v.1.15,2014-01-19 11:56:00,
2014-01-19 06:58:00,14.9,11.2,-32.77,SSE,168,0.0,4.0,85,0.00,,,0.04,Wunderground v.1.15,2014-01-19 11:58:00,
2014-01-19 06:59:00,14.9,11.2,-32.77,SSE,168,0.0,4.0,85,0.00,,,0.04,Wunderground v.1.15,2014-01-19 11:59:00,
2014-01-19 07:01:00,14.9,11.2,-32.77,SSE,168,0.0,4.0,85,0.00,,,0.04,Wunderground v.1.15,2014-01-19 12:01:00,
2014-01-19 07:02:00,14.9,11.2,-32.77,SSE,168,0.0,4.0,85,0.00,,,0.04,Wunderground v.1.15,2014-01-19 12:02:00,
2014-01-19 07:03:00,14.9,11.2,-32.77,SSE,168,0.0,4.0,85,0.00,,,0.04,Wunderground v.1.15,2014-01-19 12:03:00,
2014-01-19 07:04:00,14.9,11.2,-32.77,SSE,168,0.0,4.0,85,0.00,,,0.04,Wunderground v.1.15,2014-01-19 12:04:00,
2014-01-19 07:07:00,14.9,10.9,-32.77,South,170,0.0,4.0,84,0.00,,,0.04,Wunderground v.1.15,2014-01-19 12:07:00,
2014-01-19 07:10:00,15.0,11.3,-32.77,SSE,160,0.0,4.0,85,0.00,,,0.04,Wunderground v.1.15,2014-01-19 12:10:00,
2014-01-19 07:12:00,15.0,11.0,-32.77,SSE,157,0.0,4.0,84,0.00,,,0.04,Wunderground v.1.15,2014-01-19 12:12:00,
2014-01-19 07:13:00,15.0,11.3,-32.77,SE,130,0.0,4.0,85,0.00,,,0.04,Wunderground v.1.15,2014-01-19 12:13:00,
2014-01-19 07:14:00,15.1,11.1,-32.77,SSE,166,0.0,4.0,84,0.00,,,0.04,Wunderground v.1.15,2014-01-19 12:14:00,
2014-01-19 07:15:00,15.1,11.1,-32.77,SSE,165,1.0,4.0,84,0.00,,,0.04,Wunderground v.1.15,2014-01-19 12:15:00,
2014-01-19 07:17:00,15.1,11.1,-32.77,SSE,157,1.0,4.0,84,0.00,,,0.04,Wunderground v.1.15,2014-01-19 12:17:00,
2014-01-19 07:18:00,15.2,11.2,-32.77,SSE,167,1.0,4.0,84,0.00,,,0.04,Wunderground v.1.15,2014-01-19 12:18:00,
2014-01-19 07:19:00,15.2,11.2,-32.77,SSE,166,1.0,4.0,84,0.00,,,0.04,Wunderground v.1.15,2014-01-19 12:19:00,
2014-01-19 07:21:00,15.2,11.2,-32.77,SSE,167,1.0,4.0,84,0.00,,,0.04,Wunderground v.1.15,2014-01-19 12:21:00,
2014-01-19 07:24:00,15.2,11.2,-32.77,SSE,168,1.0,4.0,84,0.00,,,0.04,Wunderground v.1.15,2014-01-19 12:24:00,
2014-01-19 07:25:00,15.3,11.3,-32.77,SSE,156,1.0,4.0,84,0.00,,,0.04,Wunderground v.1.15,2014-01-19 12:25:00,
2014-01-19 07:26:00,15.3,11.3,-32.77,SSE,159,1.0,4.0,84,0.00,,,0.04,Wunderground v.1.15,2014-01-19 12:26:00,
2014-01-19 07:28:00,15.3,11.1,-32.77,SE,137,2.0,4.0,83,0.00,,,0.04,Wunderground v.1.15,2014-01-19 12:28:00,
2014-01-19 07:29:00,15.3,11.1,-32.77,SSE,150,2.0,4.0,83,0.00,,,0.04,Wunderground v.1.15,2014-01-19 12:29:00,
2014-01-19 07:32:00,15.3,11.1,-32.77,SSE,163,2.0,4.0,83,0.00,,,0.04,Wunderground v.1.15,2014-01-19 12:32:00,
2014-01-19 07:33:00,15.4,11.2,-32.77,South,176,2.0,6.0,83,0.00,,,0.04,Wunderground v.1.15,2014-01-19 12:33:00,
2014-01-19 07:36:00,15.4,11.2,-32.77,South,174,2.0,6.0,83,0.00,,,0.04,Wunderground v.1.15,2014-01-19 12:36:00,
2014-01-19 07:38:00,15.5,11.3,-32.77,SE,141,3.0,6.0,83,0.00,,,0.04,Wunderground v.1.15,2014-01-19 12:38:00,
2014-01-19 07:41:00,15.5,11.3,-32.77,South,171,2.0,4.0,83,0.00,,,0.04,Wunderground v.1.15,2014-01-19 12:41:00,
2014-01-19 07:44:00,15.5,11.3,-32.77,South,171,2.0,4.0,83,0.00,,,0.04,Wunderground v.1.15,2014-01-19 12:44:00,
2014-01-19 07:45:00,15.5,11.3,-32.77,SSE,161,2.0,4.0,83,0.00,,,0.04,Wunderground v.1.15,2014-01-19 12:45:00,
2014-01-19 07:46:00,15.6,11.4,-32.77,South,178,2.0,4.0,83,0.00,,,0.04,Wunderground v.1.15,2014-01-19 12:46:00,
2014-01-19 07:47:00,15.6,11.4,-32.77,SSE,147,2.0,4.0,83,0.00,,,0.04,Wunderground v.1.15,2014-01-19 12:47:00,
2014-01-19 07:49:00,15.6,11.4,-32.77,SE,131,2.0,4.0,83,0.00,,,0.04,Wunderground v.1.15,2014-01-19 12:49:00,
2014-01-19 07:51:00,15.6,11.4,-32.77,SE,137,2.0,3.0,83,0.00,,,0.04,Wunderground v.1.15,2014-01-19 12:51:00,
2014-01-19 07:54:00,15.6,11.4,-32.77,South,183,2.0,4.0,83,0.00,,,0.04,Wunderground v.1.15,2014-01-19 12:54:00,
2014-01-19 07:57:00,15.7,11.5,-32.77,ESE,109,2.0,4.0,83,0.00,,,0.04,Wunderground v.1.15,2014-01-19 12:57:00,
2014-01-19 07:58:00,15.7,11.5,-32.77,ESE,122,2.0,4.0,83,0.00,,,0.04,Wunderground v.1.15,2014-01-19 12:58:00,
2014-01-19 07:59:00,15.8,11.6,-32.77,SSE,148,1.0,4.0,83,0.00,,,0.04,Wunderground v.1.15,2014-01-19 12:59:00,
2014-01-19 08:00:00,15.8,11.6,-32.77,SE,138,1.0,4.0,83,0.00,,,0.04,Wunderground v.1.15,2014-01-19 13:00:00,
2014-01-19 08:02:00,15.9,11.7,-32.77,SE,146,2.0,5.0,83,0.00,,,0.04,Wunderground v.1.15,2014-01-19 13:02:00,
2014-01-19 08:04:00,16.1,11.6,-32.77,SE,130,2.0,5.0,82,0.00,,,0.04,Wunderground v.1.15,2014-01-19 13:04:00,
2014-01-19 08:05:00,16.1,11.8,-32.77,SE,131,2.0,5.0,83,0.00,,,0.04,Wunderground v.1.15,2014-01-19 13:05:00,
2014-01-19 08:06:00,16.1,11.8,-32.77,SE,131,2.0,5.0,83,0.00,,,0.04,Wunderground v.1.15,2014-01-19 13:06:00,
2014-01-19 08:08:00,16.2,11.7,-32.77,SSE,160,2.0,5.0,82,0.00,,,0.04,Wunderground v.1.15,2014-01-19 13:08:00,
2014-01-19 08:09:00,16.2,11.7,-32.77,SSE,159,2.0,4.0,82,0.00,,,0.04,Wunderground v.1.15,2014-01-19 13:09:00,
2014-01-19 08:11:00,16.2,11.7,-32.77,SE,142,2.0,4.0,82,0.00,,,0.04,Wunderground v.1.15,2014-01-19 13:11:00,
2014-01-19 08:14:00,16.3,11.8,-32.77,SE,129,1.0,4.0,82,0.00,,,0.04,Wunderground v.1.15,2014-01-19 13:14:00,
2014-01-19 08:16:00,16.3,11.8,-32.77,SE,129,1.0,4.0,82,0.00,,,0.04,Wunderground v.1.15,2014-01-19 13:16:00,
2014-01-19 08:18:00,16.3,11.8,-32.77,SSE,167,1.0,4.0,82,0.00,,,0.04,Wunderground v.1.15,2014-01-19 13:18:00,
2014-01-19 08:21:00,16.3,11.8,-32.77,SSE,149,1.0,4.0,82,0.00,,,0.04,Wunderground v.1.15,2014-01-19 13:21:00,
2014-01-19 08:22:00,16.3,11.8,-32.77,SW,232,1.0,4.0,82,0.00,,,0.04,Wunderground v.1.15,2014-01-19 13:22:00,
2014-01-19 08:23:00,16.3,11.8,-32.77,SSW,201,1.0,4.0,82,0.00,,,0.04,Wunderground v.1.15,2014-01-19 13:23:00,
2014-01-19 08:24:00,16.4,11.9,-32.77,South,177,1.0,4.0,82,0.00,,,0.04,Wunderground v.1.15,2014-01-19 13:24:00,
2014-01-19 08:25:00,16.4,11.9,-32.77,South,178,1.0,4.0,82,0.00,,,0.04,Wunderground v.1.15,2014-01-19 13:25:00,
2014-01-19 08:27:00,16.4,11.9,-32.77,SE,146,1.0,4.0,82,0.00,,,0.04,Wunderground v.1.15,2014-01-19 13:27:00,
2014-01-19 08:29:00,16.5,12.0,-32.77,SSE,150,1.0,4.0,82,0.00,,,0.04,Wunderground v.1.15,2014-01-19 13:29:00,
2014-01-19 08:30:00,16.5,12.0,-32.77,SSE,151,1.0,1.0,82,0.00,,,0.04,Wunderground v.1.15,2014-01-19 13:30:00,
2014-01-19 08:32:00,16.6,12.1,-32.77,SSE,150,0.0,4.0,82,0.00,,,0.04,Wunderground v.1.15,2014-01-19 13:32:00,
2014-01-19 08:33:00,16.6,12.1,-32.77,SSE,150,0.0,4.0,82,0.00,,,0.04,Wunderground v.1.15,2014-01-19 13:33:00,
2014-01-19 08:34:00,16.6,12.1,-32.77,SSW,196,0.0,4.0,82,0.00,,,0.04,Wunderground v.1.15,2014-01-19 13:34:00,
2014-01-19 08:36:00,16.7,12.2,-32.77,SSW,192,0.0,4.0,82,0.00,,,0.04,Wunderground v.1.15,2014-01-19 13:36:00,
2014-01-19 08:39:00,16.8,12.0,-32.77,SSE,167,0.0,4.0,81,0.00,,,0.04,Wunderground v.1.15,2014-01-19 13:39:00,
2014-01-19 08:42:00,16.9,12.1,-32.77,SSE,167,0.0,4.0,81,0.00,,,0.04,Wunderground v.1.15,2014-01-19 13:42:00,
2014-01-19 08:43:00,16.9,12.1,-32.77,WSW,257,0.0,4.0,81,0.00,,,0.04,Wunderground v.1.15,2014-01-19 13:43:00,
2014-01-19 08:46:00,17.1,12.0,-32.77,South,173,1.0,4.0,80,0.00,,,0.04,Wunderground v.1.15,2014-01-19 13:46:00,
2014-01-19 08:47:00,17.1,12.0,-32.77,South,174,1.0,4.0,80,0.00,,,0.04,Wunderground v.1.15,2014-01-19 13:47:00,
2014-01-19 08:50:00,17.3,12.2,-32.77,SSW,203,1.0,4.0,80,0.00,,,0.04,Wunderground v.1.15,2014-01-19 13:50:00,
2014-01-19 08:51:00,17.3,12.2,-32.77,SSW,203,2.0,4.0,80,0.00,,,0.04,Wunderground v.1.15,2014-01-19 13:51:00,
2014-01-19 08:52:00,17.3,12.2,-32.77,SSE,160,2.0,4.0,80,0.00,,,0.04,Wunderground v.1.15,2014-01-19 13:52:00,
2014-01-19 08:53:00,17.3,12.2,-32.77,SSE,161,2.0,4.0,80,0.00,,,0.04,Wunderground v.1.15,2014-01-19 13:53:00,
2014-01-19 08:55:00,17.5,12.4,-32.77,South,188,2.0,4.0,80,0.00,,,0.04,Wunderground v.1.15,2014-01-19 13:55:00,
2014-01-19 08:58:00,17.5,12.4,-32.77,WSW,248,2.0,4.0,80,0.00,,,0.04,Wunderground v.1.15,2014-01-19 13:58:00,
2014-01-19 08:59:00,17.6,12.5,-32.77,SW,233,1.0,1.0,80,0.00,,,0.04,Wunderground v.1.15,2014-01-19 13:59:00,
2014-01-19 09:00:00,17.6,12.2,-32.77,South,170,1.0,5.0,79,0.00,,,0.04,Wunderground v.1.15,2014-01-19 14:00:00,
2014-01-19 09:02:00,17.6,12.2,-32.77,South,183,2.0,5.0,79,0.00,,,0.04,Wunderground v.1.15,2014-01-19 14:02:00,
2014-01-19 09:03:00,17.7,12.3,-32.77,South,186,2.0,5.0,79,0.00,,,0.04,Wunderground v.1.15,2014-01-19 14:03:00,
2014-01-19 09:08:00,17.7,12.3,-32.77,SW,225,2.0,5.0,79,0.00,,,0.04,Wunderground v.1.15,2014-01-19 14:08:00,
2014-01-19 09:09:00,17.7,12.3,-32.77,SW,216,2.0,5.0,79,0.00,,,0.04,Wunderground v.1.15,2014-01-19 14:09:00,
2014-01-19 09:10:00,17.7,12.3,-32.77,SSE,162,2.0,2.0,79,0.00,,,0.04,Wunderground v.1.15,2014-01-19 14:10:00,
2014-01-19 09:12:00,17.7,12.3,-32.77,SSE,163,2.0,4.0,79,0.00,,,0.04,Wunderground v.1.15,2014-01-19 14:12:00,
2014-01-19 09:13:00,17.7,12.3,-32.77,SE,141,1.0,4.0,79,0.00,,,0.04,Wunderground v.1.15,2014-01-19 14:13:00,
2014-01-19 09:14:00,17.8,12.4,-32.77,SSW,197,1.0,4.0,79,0.00,,,0.04,Wunderground v.1.15,2014-01-19 14:14:00,
2014-01-19 09:17:00,18.0,12.6,-32.77,South,189,2.0,4.0,79,0.00,,,0.04,Wunderground v.1.15,2014-01-19 14:17:00,
2014-01-19 09:20:00,18.4,12.7,-32.77,SSW,203,2.0,2.0,78,0.00,,,0.04,Wunderground v.1.15,2014-01-19 14:20:00,
2014-01-19 09:21:00,18.5,13.1,-32.77,South,173,2.0,4.0,79,0.00,,,0.00,Wunderground v.1.15,2014-01-19 14:21:00,
2014-01-19 09:22:00,18.6,13.2,-32.77,South,180,2.0,4.0,79,0.00,,,0.00,Wunderground v.1.15,2014-01-19 14:22:00,
2014-01-19 09:24:00,19.0,13.3,-32.77,SW,219,1.0,4.0,78,0.00,,,0.00,Wunderground v.1.15,2014-01-19 14:24:00,
2014-01-19 09:27:00,19.5,13.5,-32.77,East,101,1.0,4.0,77,0.00,,,0.00,Wunderground v.1.15,2014-01-19 14:27:00,
2014-01-19 09:29:00,19.6,13.3,-32.77,SSE,157,1.0,4.0,76,0.00,,,0.00,Wunderground v.1.15,2014-01-19 14:29:00,
2014-01-19 09:30:00,19.7,13.4,-32.77,WNW,287,1.0,5.0,76,0.00,,,0.00,Wunderground v.1.15,2014-01-19 14:30:00,
2014-01-19 09:32:00,19.9,13.3,-32.77,SSE,167,2.0,5.0,75,0.00,,,0.00,Wunderground v.1.15,2014-01-19 14:32:00,
2014-01-19 09:33:00,19.9,13.3,-32.77,SW,223,2.0,5.0,75,0.00,,,0.00,Wunderground v.1.15,2014-01-19 14:33:00,
2014-01-19 09:34:00,20.0,13.3,-32.77,South,170,2.0,6.0,75,0.00,,,0.00,Wunderground v.1.15,2014-01-19 14:34:00,
2014-01-19 09:36:00,20.0,13.3,-32.77,South,178,3.0,6.0,75,0.00,,,0.00,Wunderground v.1.15,2014-01-19 14:36:00,
2014-01-19 09:39:00,20.1,13.4,-32.77,SW,215,3.0,6.0,75,0.00,,,0.00,Wunderground v.1.15,2014-01-19 14:39:00,
2014-01-19 09:40:00,20.2,13.5,-32.77,WSW,245,3.0,6.0,75,0.00,,,0.00,Wunderground v.1.15,2014-01-19 14:40:00,
2014-01-19 09:42:00,20.3,13.6,-32.77,SW,236,3.0,6.0,75,0.00,,,0.00,Wunderground v.1.15,2014-01-19 14:42:00,
2014-01-19 09:43:00,20.4,13.4,-32.77,SSE,167,3.0,6.0,74,0.00,,,0.00,Wunderground v.1.15,2014-01-19 14:43:00,
2014-01-19 09:46:00,20.6,13.6,-32.77,WSW,238,3.0,6.0,74,0.00,,,0.00,Wunderground v.1.15,2014-01-19 14:46:00,
2014-01-19 09:47:00,20.7,13.7,-32.77,South,179,3.0,6.0,74,0.00,,,0.00,Wunderground v.1.15,2014-01-19 14:47:00,
2014-01-19 09:49:00,20.8,13.8,-32.77,South,178,2.0,7.0,74,0.00,,,0.00,Wunderground v.1.15,2014-01-19 14:49:00,
2014-01-19 09:52:00,21.0,13.7,-32.77,South,176,2.0,4.0,73,0.00,,,0.00,Wunderground v.1.15,2014-01-19 14:52:00,
2014-01-19 09:55:00,21.2,13.9,-32.77,SSW,200,2.0,4.0,73,0.00,,,0.00,Wunderground v.1.15,2014-01-19 14:55:00,
2014-01-19 09:56:00,21.2,13.9,-32.77,SSW,211,3.0,4.0,73,0.00,,,0.00,Wunderground v.1.15,2014-01-19 14:56:00,
2014-01-19 09:58:00,21.3,14.0,-32.77,SSW,198,3.0,6.0,73,0.00,,,0.00,Wunderground v.1.15,2014-01-19 14:58:00,
2014-01-19 10:01:00,21.5,14.2,-32.77,South,191,3.0,4.0,73,0.00,,,0.00,Wunderground v.1.15,2014-01-19 15:01:00,
2014-01-19 10:02:00,21.5,13.9,-32.77,South,179,3.0,4.0,72,0.00,,,0.00,Wunderground v.1.15,2014-01-19 15:02:00,
2014-01-19 10:04:00,21.6,14.0,-32.77,SW,232,3.0,6.0,72,0.00,,,0.00,Wunderground v.1.15,2014-01-19 15:04:00,
2014-01-19 10:07:00,21.6,14.0,-32.77,SSW,200,3.0,6.0,72,0.00,,,0.00,Wunderground v.1.15,2014-01-19 15:07:00,
2014-01-19 10:08:00,21.7,14.4,-32.77,SSW,195,3.0,6.0,73,0.00,,,0.00,Wunderground v.1.15,2014-01-19 15:08:00,
2014-01-19 10:09:00,21.8,14.5,-32.77,SW,226,3.0,6.0,73,0.00,,,0.00,Wunderground v.1.15,2014-01-19 15:09:00,
2014-01-19 10:10:00,22.0,14.3,-32.77,SSE,167,3.0,4.0,72,0.00,,,0.00,Wunderground v.1.15,2014-01-19 15:10:00,
2014-01-19 10:12:00,22.0,14.3,-32.77,SSE,164,3.0,4.0,72,0.00,,,0.00,Wunderground v.1.15,2014-01-19 15:12:00,
2014-01-19 10:15:00,22.2,14.2,-32.77,SW,233,3.0,5.0,71,0.00,,,0.00,Wunderground v.1.15,2014-01-19 15:15:00,
2014-01-19 10:16:00,22.3,14.6,-32.77,SSE,148,3.0,8.0,72,0.00,,,0.00,Wunderground v.1.15,2014-01-19 15:16:00,
2014-01-19 10:18:00,22.4,14.4,-32.77,SSW,203,3.0,8.0,71,0.00,,,0.00,Wunderground v.1.15,2014-01-19 15:18:00,
2014-01-19 10:20:00,22.5,14.5,-32.77,SSE,156,4.0,4.0,71,0.00,,,0.00,Wunderground v.1.15,2014-01-19 15:20:00,
2014-01-19 10:21:00,22.5,14.5,-32.77,SW,221,4.0,4.0,71,0.00,,,0.00,Wunderground v.1.15,2014-01-19 15:21:00,
2014-01-19 10:22:00,22.5,14.5,-32.77,SSE,150,4.0,4.0,71,0.00,,,0.00,Wunderground v.1.15,2014-01-19 15:22:00,
2014-01-19 10:25:00,22.8,14.8,-32.77,SW,222,4.0,4.0,71,0.00,,,0.00,Wunderground v.1.15,2014-01-19 15:25:00,
2014-01-19 10:26:00,22.8,14.8,-32.77,SSW,211,4.0,4.0,71,0.00,,,0.00,Wunderground v.1.15,2014-01-19 15:26:00,
2014-01-19 10:27:00,22.8,14.5,-32.77,South,188,3.0,4.0,70,0.00,,,0.00,Wunderground v.1.15,2014-01-19 15:27:00,
2014-01-19 10:28:00,22.8,14.5,-32.77,SW,220,4.0,4.0,70,0.00,,,0.00,Wunderground v.1.15,2014-01-19 15:28:00,
2014-01-19 10:29:00,22.7,14.4,-32.77,South,184,4.0,5.0,70,0.00,,,0.00,Wunderground v.1.15,2014-01-19 15:29:00,
2014-01-19 10:30:00,22.7,14.4,-32.77,SSE,167,4.0,5.0,70,0.00,,,0.00,Wunderground v.1.15,2014-01-19 15:30:00,
2014-01-19 10:33:00,22.7,14.7,-32.77,West,270,4.0,11.0,71,0.00,,,0.00,Wunderground v.1.15,2014-01-19 15:33:00,
2014-01-19 10:35:00,22.6,14.6,-32.77,SW,236,5.0,12.0,71,0.00,,,0.00,Wunderground v.1.15,2014-01-19 15:35:00,
2014-01-19 10:36:00,22.6,14.6,-32.77,South,171,6.0,12.0,71,0.00,,,0.00,Wunderground v.1.15,2014-01-19 15:36:00,
2014-01-19 10:40:00,22.8,14.8,-32.77,SW,229,6.0,6.0,71,0.00,,,0.00,Wunderground v.1.15,2014-01-19 15:40:00,
2014-01-19 10:42:00,22.9,14.9,-32.77,South,191,6.0,6.0,71,0.00,,,0.00,Wunderground v.1.15,2014-01-19 15:42:00,
2014-01-19 10:43:00,23.0,15.0,-32.77,WSW,250,5.0,6.0,71,0.00,,,0.00,Wunderground v.1.15,2014-01-19 15:43:00,
2014-01-19 10:47:00,23.1,14.8,-32.77,SSW,205,5.0,8.0,70,0.00,,,0.00,Wunderground v.1.15,2014-01-19 15:47:00,
2014-01-19 10:48:00,23.2,14.9,-32.77,SW,224,5.0,12.0,70,0.00,,,0.00,Wunderground v.1.15,2014-01-19 15:48:00,
2014-01-19 10:49:00,23.2,14.9,-32.77,SW,232,5.0,12.0,70,0.00,,,0.00,Wunderground v.1.15,2014-01-19 15:49:00,
2014-01-19 10:50:00,23.2,14.9,-32.77,WSW,252,5.0,12.0,70,0.00,,,0.00,Wunderground v.1.15,2014-01-19 15:50:00,
2014-01-19 10:52:00,23.2,14.9,-32.77,South,172,6.0,12.0,70,0.00,,,0.00,Wunderground v.1.15,2014-01-19 15:52:00,
2014-01-19 10:54:00,23.3,15.0,-32.77,SW,230,6.0,12.0,70,0.00,,,0.00,Wunderground v.1.15,2014-01-19 15:54:00,
2014-01-19 10:56:00,23.3,15.0,-32.77,WSW,238,6.0,12.0,70,0.00,,,0.00,Wunderground v.1.15,2014-01-19 15:56:00,
2014-01-19 10:57:00,23.3,15.0,-32.77,SW,227,7.0,12.0,70,0.00,,,0.00,Wunderground v.1.15,2014-01-19 15:57:00,
2014-01-19 10:58:00,23.4,15.1,-32.77,SW,236,6.0,12.0,70,0.00,,,0.00,Wunderground v.1.15,2014-01-19 15:58:00,
2014-01-19 10:59:00,23.4,15.1,-32.77,West,265,6.0,12.0,70,0.00,,,0.00,Wunderground v.1.15,2014-01-19 15:59:00,
2014-01-19 11:04:00,23.5,15.1,-32.77,South,173,5.0,7.0,70,0.00,,,0.00,Wunderground v.1.15,2014-01-19 16:04:00,
2014-01-19 11:06:00,23.6,15.2,-32.77,WSW,248,6.0,10.0,70,0.00,,,0.00,Wunderground v.1.15,2014-01-19 16:06:00,
2014-01-19 11:07:00,23.6,15.2,-32.77,WSW,238,5.0,10.0,70,0.00,,,0.00,Wunderground v.1.15,2014-01-19 16:07:00,
2014-01-19 11:08:00,23.6,15.2,-32.77,West,279,6.0,12.0,70,0.00,,,0.00,Wunderground v.1.15,2014-01-19 16:08:00,
2014-01-19 11:10:00,23.6,15.2,-32.77,SW,226,6.0,6.0,70,0.00,,,0.00,Wunderground v.1.15,2014-01-19 16:10:00,
2014-01-19 11:11:00,23.6,15.2,-32.77,SW,225,6.0,7.0,70,0.00,,,0.00,Wunderground v.1.15,2014-01-19 16:11:00,
2014-01-19 11:12:00,23.6,15.2,-32.77,SSW,198,7.0,7.0,70,0.00,,,0.00,Wunderground v.1.15,2014-01-19 16:12:00,
2014-01-19 11:13:00,23.7,15.3,-32.77,SSW,194,7.0,7.0,70,0.00,,,0.00,Wunderground v.1.15,2014-01-19 16:13:00,
2014-01-19 11:17:00,23.8,15.4,-32.77,WSW,245,6.0,7.0,70,0.00,,,0.00,Wunderground v.1.15,2014-01-19 16:17:00,
2014-01-19 11:18:00,23.9,15.5,-32.77,West,265,6.0,7.0,70,0.00,,,0.00,Wunderground v.1.15,2014-01-19 16:18:00,
2014-01-19 11:20:00,24.0,15.6,-32.77,WSW,253,6.0,7.0,70,0.00,,,0.00,Wunderground v.1.15,2014-01-19 16:20:00,
2014-01-19 11:21:00,24.1,15.7,-32.77,SW,219,6.0,10.0,70,0.00,,,0.00,Wunderground v.1.15,2014-01-19 16:21:00,
2014-01-19 11:23:00,24.2,15.5,-32.77,WSW,253,6.0,11.0,69,0.00,,,0.00,Wunderground v.1.15,2014-01-19 16:23:00,
2014-01-19 11:27:00,24.4,15.7,-32.77,WSW,245,7.0,20.0,69,0.00,,,0.00,Wunderground v.1.15,2014-01-19 16:27:00,
2014-01-19 11:28:00,24.4,15.7,-32.77,West,259,8.0,20.0,69,0.00,,,0.00,Wunderground v.1.15,2014-01-19 16:28:00,
2014-01-19 11:29:00,24.4,15.7,-32.77,SSE,161,8.0,20.0,69,0.00,,,0.00,Wunderground v.1.15,2014-01-19 16:29:00,
2014-01-19 11:30:00,24.4,15.7,-32.77,WSW,251,7.0,7.0,69,0.00,,,0.00,Wunderground v.1.15,2014-01-19 16:30:00,
2014-01-19 11:31:00,24.5,15.8,-32.77,West,265,7.0,7.0,69,0.00,,,0.00,Wunderground v.1.15,2014-01-19 16:31:00,
2014-01-19 11:32:00,24.6,15.9,-32.77,West,268,7.0,7.0,69,0.00,,,0.00,Wunderground v.1.15,2014-01-19 16:32:00,
2014-01-19 11:35:00,24.7,16.0,-32.77,West,266,7.0,11.0,69,0.00,,,0.00,Wunderground v.1.15,2014-01-19 16:35:00,
2014-01-19 11:36:00,24.8,16.1,-32.77,SSW,207,7.0,11.0,69,0.00,,,0.00,Wunderground v.1.15,2014-01-19 16:36:00,
2014-01-19 11:37:00,24.8,15.7,-32.77,SSW,196,7.0,11.0,68,0.00,,,0.00,Wunderground v.1.15,2014-01-19 16:37:00,
2014-01-19 11:38:00,24.9,16.2,-32.77,SW,223,6.0,11.0,69,0.00,,,0.00,Wunderground v.1.15,2014-01-19 16:38:00,
2014-01-19 11:40:00,25.0,15.9,-32.77,SW,214,7.0,10.0,68,0.00,,,0.00,Wunderground v.1.15,2014-01-19 16:40:00,
2014-01-19 11:44:00,25.1,16.0,-32.77,WSW,257,7.0,13.0,68,0.00,,,0.00,Wunderground v.1.15,2014-01-19 16:44:00,
2014-01-19 11:46:00,25.2,16.1,-32.77,SW,234,7.0,13.0,68,0.00,,,0.00,Wunderground v.1.15,2014-01-19 16:46:00,
2014-01-19 11:49:00,25.2,15.8,-32.77,SW,232,8.0,13.0,67,0.00,,,0.00,Wunderground v.1.15,2014-01-19 16:49:00,
2014-01-19 11:50:00,25.2,16.1,-32.77,SSW,210,8.0,8.0,68,0.00,,,0.00,Wunderground v.1.15,2014-01-19 16:50:00,
2014-01-19 11:51:00,25.2,16.1,-32.77,SW,225,8.0,8.0,68,0.00,,,0.00,Wunderground v.1.15,2014-01-19 16:51:00,
2014-01-19 11:52:00,25.2,16.1,-32.77,SSW,205,7.0,8.0,68,0.00,,,0.00,Wunderground v.1.15,2014-01-19 16:52:00,
2014-01-19 11:54:00,25.2,16.1,-32.77,SW,218,7.0,8.0,68,0.00,,,0.00,Wunderground v.1.15,2014-01-19 16:54:00,
2014-01-19 11:55:00,25.3,16.2,-32.77,West,267,7.0,8.0,68,0.00,,,0.00,Wunderground v.1.15,2014-01-19 16:55:00,
2014-01-19 11:58:00,25.3,16.2,-32.77,WNW,302,6.0,10.0,68,0.00,,,0.00,Wunderground v.1.15,2014-01-19 16:58:00,
2014-01-19 11:59:00,25.3,16.2,-32.77,West,259,5.0,10.0,68,0.00,,,0.00,Wunderground v.1.15,2014-01-19 16:59:00,
2014-01-19 12:00:00,25.3,16.2,-32.77,West,269,5.0,7.0,68,0.00,,,0.00,Wunderground v.1.15,2014-01-19 17:00:00,
2014-01-19 12:05:00,25.2,16.1,-32.77,WSW,244,7.0,14.0,68,0.00,,,0.00,Wunderground v.1.15,2014-01-19 17:05:00,
2014-01-19 12:06:00,25.2,16.1,-32.77,West,271,7.0,14.0,68,0.00,,,0.00,Wunderground v.1.15,2014-01-19 17:06:00,
2014-01-19 12:07:00,25.2,15.8,-32.77,WSW,240,8.0,14.0,67,0.00,,,0.00,Wunderground v.1.15,2014-01-19 17:07:00,
2014-01-19 12:08:00,25.2,16.1,-32.77,SW,232,7.0,14.0,68,0.00,,,0.00,Wunderground v.1.15,2014-01-19 17:08:00,
2014-01-19 12:11:00,25.3,16.2,-32.77,SW,232,7.0,7.0,68,0.00,,,0.00,Wunderground v.1.15,2014-01-19 17:11:00,
2014-01-19 12:13:00,25.4,16.0,-32.77,SW,226,7.0,10.0,67,0.00,,,0.00,Wunderground v.1.15,2014-01-19 17:13:00,
2014-01-19 12:14:00,25.5,16.1,-32.77,SSW,202,7.0,10.0,67,0.00,,,0.00,Wunderground v.1.15,2014-01-19 17:14:00,
2014-01-19 12:16:00,25.6,16.5,-32.77,SSE,147,6.0,10.0,68,0.00,,,0.00,Wunderground v.1.15,2014-01-19 17:16:00,
2014-01-19 12:19:00,25.8,16.3,-32.77,WSW,254,7.0,10.0,67,0.00,,,0.00,Wunderground v.1.15,2014-01-19 17:19:00,
2014-01-19 12:20:00,25.9,16.4,-32.77,South,190,7.0,16.0,67,0.00,,,0.00,Wunderground v.1.15,2014-01-19 17:20:00,
2014-01-19 12:21:00,25.9,16.4,-32.77,SW,234,7.0,16.0,67,0.00,,,0.00,Wunderground v.1.15,2014-01-19 17:21:00,
2014-01-19 12:22:00,25.9,16.4,-32.77,SE,144,7.0,16.0,67,0.00,,,0.00,Wunderground v.1.15,2014-01-19 17:22:00,
2014-01-19 12:25:00,26.0,16.5,-32.77,SW,217,7.0,16.0,67,0.00,,,0.00,Wunderground v.1.15,2014-01-19 17:25:00,
2014-01-19 12:26:00,26.0,16.5,-32.77,SW,236,7.0,16.0,67,0.00,,,0.00,Wunderground v.1.15,2014-01-19 17:26:00,
2014-01-19 12:27:00,26.1,16.6,-32.77,WSW,248,7.0,16.0,67,0.00,,,0.00,Wunderground v.1.15,2014-01-19 17:27:00,
2014-01-19 12:28:00,26.1,16.3,-32.77,South,184,7.0,16.0,66,0.00,,,0.00,Wunderground v.1.15,2014-01-19 17:28:00,
2014-01-19 12:32:00,26.2,16.7,-32.77,SW,217,8.0,10.0,67,0.00,,,0.00,Wunderground v.1.15,2014-01-19 17:32:00,
2014-01-19 12:34:00,26.2,16.7,-32.77,SW,215,8.0,10.0,67,0.00,,,0.00,Wunderground v.1.15,2014-01-19 17:34:00,
2014-01-19 12:37:00,26.3,16.8,-32.77,SSW,205,8.0,10.0,67,0.00,,,0.00,Wunderground v.1.15,2014-01-19 17:37:00,
2014-01-19 12:38:00,26.3,16.8,-32.77,SSE,155,8.0,10.0,67,0.00,,,0.00,Wunderground v.1.15,2014-01-19 17:38:00,
2014-01-19 12:39:00,26.4,16.9,-32.77,WSW,252,8.0,10.0,67,0.00,,,0.00,Wunderground v.1.15,2014-01-19 17:39:00,
2014-01-19 12:40:00,26.4,16.9,-32.77,NW,317,7.0,12.0,67,0.00,,,0.00,Wunderground v.1.15,2014-01-19 17:40:00,
2014-01-19 12:44:00,26.6,17.1,-32.77,West,268,7.0,12.0,67,0.00,,,0.00,Wunderground v.1.15,2014-01-19 17:44:00,
2014-01-19 12:45:00,26.7,17.2,-32.77,West,263,7.0,12.0,67,0.00,,,0.00,Wunderground v.1.15,2014-01-19 17:45:00,
2014-01-19 12:46:00,26.7,17.2,-32.77,SW,233,7.0,12.0,67,0.00,,,0.00,Wunderground v.1.15,2014-01-19 17:46:00,
2014-01-19 12:47:00,26.7,16.9,-32.77,South,187,7.0,12.0,66,0.00,,,0.00,Wunderground v.1.15,2014-01-19 17:47:00,
2014-01-19 12:50:00,26.9,17.0,-32.77,South,171,7.0,17.0,66,0.00,,,0.00,Wunderground v.1.15,2014-01-19 17:50:00,
2014-01-19 12:52:00,27.0,17.5,-32.77,SSW,207,7.0,17.0,67,0.00,,,0.00,Wunderground v.1.15,2014-01-19 17:52:00,
2014-01-19 12:53:00,27.0,17.1,-32.77,WSW,243,8.0,17.0,66,0.00,,,0.00,Wunderground v.1.15,2014-01-19 17:53:00,
2014-01-19 12:55:00,27.0,17.1,-32.77,SSW,203,8.0,17.0,66,0.00,,,0.00,Wunderground v.1.15,2014-01-19 17:55:00,
2014-01-19 12:56:00,27.0,17.1,-32.77,WSW,238,8.0,17.0,66,0.00,,,0.00,Wunderground v.1.15,2014-01-19 17:56:00,
2014-01-19 12:57:00,27.1,17.2,-32.77,SW,235,8.0,17.0,66,0.00,,,0.00,Wunderground v.1.15,2014-01-19 17:57:00,
2014-01-19 12:58:00,27.1,17.2,-32.77,SW,236,8.0,17.0,66,0.00,,,0.00,Wunderground v.1.15,2014-01-19 17:58:00,
2014-01-19 12:59:00,27.1,16.9,-32.77,West,264,8.0,17.0,65,0.00,,,0.00,Wunderground v.1.15,2014-01-19 17:59:00,
2014-01-19 13:01:00,27.1,17.2,-32.77,WSW,241,8.0,15.0,66,0.00,,,0.00,Wunderground v.1.15,2014-01-19 18:01:00,
2014-01-19 13:02:00,27.2,17.0,-32.77,South,172,9.0,15.0,65,0.00,,,0.00,Wunderground v.1.15,2014-01-19 18:02:00,
2014-01-19 13:06:00,27.3,17.4,-32.77,West,273,8.0,15.0,66,0.00,,,0.00,Wunderground v.1.15,2014-01-19 18:06:00,
2014-01-19 13:08:00,27.4,17.5,-32.77,West,263,7.0,15.0,66,0.00,,,0.00,Wunderground v.1.15,2014-01-19 18:08:00,
2014-01-19 13:09:00,27.4,17.2,-32.77,WSW,257,7.0,18.0,65,0.00,,,0.00,Wunderground v.1.15,2014-01-19 18:09:00,
2014-01-19 13:10:00,27.4,17.5,-32.77,SSW,194,7.0,7.0,66,0.00,,,0.00,Wunderground v.1.15,2014-01-19 18:10:00,
2014-01-19 13:11:00,27.4,17.2,-32.77,WSW,246,7.0,12.0,65,0.00,,,0.00,Wunderground v.1.15,2014-01-19 18:11:00,
2014-01-19 13:13:00,27.5,17.3,-32.77,WSW,250,7.0,12.0,65,0.00,,,0.00,Wunderground v.1.15,2014-01-19 18:13:00,
2014-01-19 13:16:00,27.4,17.2,-32.77,WSW,238,8.0,12.0,65,0.00,,,0.00,Wunderground v.1.15,2014-01-19 18:16:00,
2014-01-19 13:17:00,27.5,17.3,-32.77,WSW,244,8.0,18.0,65,0.00,,,0.00,Wunderground v.1.15,2014-01-19 18:17:00,
2014-01-19 13:22:00,27.6,17.4,-32.77,WNW,284,8.0,8.0,65,0.00,,,0.00,Wunderground v.1.15,2014-01-19 18:22:00,
2014-01-19 13:23:00,27.6,17.4,-32.77,West,273,7.0,12.0,65,0.00,,,0.00,Wunderground v.1.15,2014-01-19 18:23:00,
2014-01-19 13:24:00,27.6,17.4,-32.77,WNW,284,7.0,12.0,65,0.00,,,0.00,Wunderground v.1.15,2014-01-19 18:24:00,
2014-01-19 13:26:00,27.7,17.5,-32.77,SSW,196,6.0,12.0,65,0.00,,,0.00,Wunderground v.1.15,2014-01-19 18:26:00,
2014-01-19 13:27:00,27.8,17.6,-32.77,SW,231,6.0,12.0,65,0.00,,,0.00,Wunderground v.1.15,2014-01-19 18:27:00,
2014-01-19 13:31:00,28.0,17.7,-32.77,SW,236,6.0,6.0,65,0.00,,,0.00,Wunderground v.1.15,2014-01-19 18:31:00,
2014-01-19 13:32:00,28.0,17.7,-32.77,WSW,242,6.0,6.0,65,0.00,,,0.00,Wunderground v.1.15,2014-01-19 18:32:00,
2014-01-19 13:33:00,28.1,17.5,-32.77,SSW,209,6.0,6.0,64,0.00,,,0.00,Wunderground v.1.15,2014-01-19 18:33:00,
2014-01-19 13:36:00,28.2,17.6,-32.77,South,175,7.0,11.0,64,0.00,,,0.00,Wunderground v.1.15,2014-01-19 18:36:00,
2014-01-19 13:37:00,28.3,18.0,-32.77,WSW,248,7.0,11.0,65,0.00,,,0.00,Wunderground v.1.15,2014-01-19 18:37:00,
2014-01-19 13:41:00,28.4,17.8,-32.77,West,267,7.0,10.0,64,0.00,,,0.00,Wunderground v.1.15,2014-01-19 18:41:00,
2014-01-19 13:42:00,28.4,17.8,-32.77,WSW,246,8.0,13.0,64,0.00,,,0.00,Wunderground v.1.15,2014-01-19 18:42:00,
2014-01-19 13:43:00,28.4,17.8,-32.77,WSW,253,8.0,13.0,64,0.00,,,0.00,Wunderground v.1.15,2014-01-19 18:43:00,
2014-01-19 13:44:00,28.4,17.8,-32.77,WSW,244,7.0,13.0,64,0.00,,,0.00,Wunderground v.1.15,2014-01-19 18:44:00,
2014-01-19 13:46:00,28.5,17.9,-32.77,SSE,160,8.0,13.0,64,0.00,,,0.00,Wunderground v.1.15,2014-01-19 18:46:00,
2014-01-19 13:48:00,28.5,17.9,-32.77,South,178,8.0,13.0,64,0.00,,,0.00,Wunderground v.1.15,2014-01-19 18:48:00,
2014-01-19 13:50:00,28.5,17.9,-32.77,SW,234,8.0,10.0,64,0.00,,,0.00,Wunderground v.1.15,2014-01-19 18:50:00,
2014-01-19 13:51:00,28.5,17.9,-32.77,SW,229,7.0,10.0,64,0.00,,,0.00,Wunderground v.1.15,2014-01-19 18:51:00,
2014-01-19 13:53:00,28.5,17.9,-32.77,SW,229,7.0,10.0,64,0.00,,,0.00,Wunderground v.1.15,2014-01-19 18:53:00,
2014-01-19 13:54:00,28.5,17.9,-32.77,South,188,6.0,10.0,64,0.00,,,0.00,Wunderground v.1.15,2014-01-19 18:54:00,
2014-01-19 13:55:00,28.5,17.9,-32.77,West,261,6.0,10.0,64,0.00,,,0.00,Wunderground v.1.15,2014-01-19 18:55:00,
2014-01-19 13:58:00,28.5,17.9,-32.77,South,178,6.0,10.0,64,0.00,,,0.00,Wunderground v.1.15,2014-01-19 18:58:00,
2014-01-19 14:01:00,28.6,18.0,-32.77,SW,232,5.0,5.0,64,0.00,,,0.00,Wunderground v.1.15,2014-01-19 19:01:00,
2014-01-19 14:03:00,28.6,18.0,-32.77,SSW,211,5.0,8.0,64,0.00,,,0.00,Wunderground v.1.15,2014-01-19 19:03:00,
2014-01-19 14:04:00,28.6,17.6,-32.77,SW,219,5.0,8.0,63,0.00,,,0.00,Wunderground v.1.15,2014-01-19 19:04:00,
2014-01-19 14:06:00,28.6,17.6,-32.77,SSW,206,5.0,8.0,63,0.00,,,0.00,Wunderground v.1.15,2014-01-19 19:06:00,
2014-01-19 14:07:00,28.7,17.7,-32.77,WSW,249,5.0,8.0,63,0.00,,,0.00,Wunderground v.1.15,2014-01-19 19:07:00,
2014-01-19 14:09:00,28.7,18.1,-32.77,SSW,196,5.0,8.0,64,0.00,,,0.00,Wunderground v.1.15,2014-01-19 19:09:00,
2014-01-19 14:13:00,28.7,17.7,-32.77,SSE,156,6.0,9.0,63,0.00,,,0.00,Wunderground v.1.15,2014-01-19 19:13:00,
2014-01-19 14:14:00,28.7,17.7,-32.77,WSW,244,6.0,9.0,63,0.00,,,0.00,Wunderground v.1.15,2014-01-19 19:14:00,
2014-01-19 14:17:00,28.8,17.8,-32.77,WSW,242,6.0,11.0,63,0.00,,,0.00,Wunderground v.1.15,2014-01-19 19:17:00,
2014-01-19 14:18:00,28.7,17.7,-32.77,South,188,6.0,11.0,63,0.00,,,0.00,Wunderground v.1.15,2014-01-19 19:18:00,
2014-01-19 14:19:00,28.8,17.4,-32.77,SW,222,6.0,11.0,62,0.00,,,0.00,Wunderground v.1.15,2014-01-19 19:19:00,
2014-01-19 14:20:00,28.8,17.4,-32.77,WSW,240,6.0,6.0,62,0.00,,,0.00,Wunderground v.1.15,2014-01-19 19:20:00,
2014-01-19 14:22:00,28.8,17.4,-32.77,SSW,200,6.0,9.0,62,0.00,,,0.00,Wunderground v.1.15,2014-01-19 19:22:00,
2014-01-19 14:24:00,28.8,17.4,-32.77,WSW,242,6.0,9.0,62,0.00,,,0.00,Wunderground v.1.15,2014-01-19 19:24:00,
2014-01-19 14:25:00,28.8,17.4,-32.77,WSW,248,6.0,11.0,62,0.00,,,0.00,Wunderground v.1.15,2014-01-19 19:25:00,
2014-01-19 14:28:00,28.9,17.5,-32.77,SSE,154,6.0,11.0,62,0.00,,,0.00,Wunderground v.1.15,2014-01-19 19:28:00,
2014-01-19 14:29:00,28.9,17.5,-32.77,SW,218,6.0,11.0,62,0.00,,,0.00,Wunderground v.1.15,2014-01-19 19:29:00,
2014-01-19 14:32:00,28.9,17.1,-32.77,SW,219,6.0,14.0,61,0.00,,,0.00,Wunderground v.1.15,2014-01-19 19:32:00,
2014-01-19 14:34:00,29.0,17.6,-32.77,WSW,242,5.0,14.0,62,0.00,,,0.00,Wunderground v.1.15,2014-01-19 19:34:00,
2014-01-19 14:36:00,29.0,17.6,-32.77,WSW,256,5.0,14.0,62,0.00,,,0.00,Wunderground v.1.15,2014-01-19 19:36:00,
2014-01-19 14:37:00,29.0,17.6,-32.77,SSW,193,5.0,14.0,62,0.00,,,0.00,Wunderground v.1.15,2014-01-19 19:37:00,
2014-01-19 14:39:00,29.0,17.6,-32.77,SW,225,6.0,10.0,62,0.00,,,0.00,Wunderground v.1.15,2014-01-19 19:39:00,
2014-01-19 14:41:00,29.0,17.6,-32.77,SSW,202,6.0,10.0,62,0.00,,,0.00,Wunderground v.1.15,2014-01-19 19:41:00,
2014-01-19 14:42:00,29.0,17.6,-32.77,SSE,154,6.0,10.0,62,0.00,,,0.00,Wunderground v.1.15,2014-01-19 19:42:00,
2014-01-19 14:45:00,29.1,17.3,-32.77,SSE,167,6.0,11.0,61,0.00,,,0.00,Wunderground v.1.15,2014-01-19 19:45:00,
2014-01-19 14:46:00,29.1,17.3,-32.77,SW,219,6.0,11.0,61,0.00,,,0.00,Wunderground v.1.15,2014-01-19 19:46:00,
2014-01-19 14:47:00,29.1,17.3,-32.77,West,276,6.0,13.0,61,0.00,,,0.00,Wunderground v.1.15,2014-01-19 19:47:00,
2014-01-19 14:49:00,29.1,17.3,-32.77,WSW,238,6.0,13.0,61,0.00,,,0.00,Wunderground v.1.15,2014-01-19 19:49:00,
2014-01-19 14:51:00,29.2,17.4,-32.77,SW,219,6.0,6.0,61,0.00,,,0.00,Wunderground v.1.15,2014-01-19 19:51:00,
2014-01-19 14:52:00,29.1,17.3,-32.77,South,170,6.0,6.0,61,0.00,,,0.00,Wunderground v.1.15,2014-01-19 19:52:00,
2014-01-19 14:53:00,29.2,17.4,-32.77,SW,219,6.0,6.0,61,0.00,,,0.00,Wunderground v.1.15,2014-01-19 19:53:00,
2014-01-19 14:54:00,29.1,17.3,-32.77,West,264,6.0,7.0,61,0.00,,,0.00,Wunderground v.1.15,2014-01-19 19:54:00,
2014-01-19 14:57:00,29.2,17.4,-32.77,WSW,250,6.0,13.0,61,0.00,,,0.00,Wunderground v.1.15,2014-01-19 19:57:00,
2014-01-19 14:59:00,29.2,17.4,-32.77,SSW,197,6.0,13.0,61,0.00,,,0.00,Wunderground v.1.15,2014-01-19 19:59:00,
2014-01-19 15:02:00,29.1,16.9,-32.77,South,186,7.0,18.0,60,0.00,,,0.00,Wunderground v.1.15,2014-01-19 20:02:00,
2014-01-19 15:03:00,29.2,17.0,-32.77,SW,219,7.0,18.0,60,0.00,,,0.00,Wunderground v.1.15,2014-01-19 20:03:00,
2014-01-19 15:04:00,29.2,17.0,-32.77,SSW,204,7.0,18.0,60,0.00,,,0.00,Wunderground v.1.15,2014-01-19 20:04:00,
2014-01-19 15:07:00,29.2,17.4,-32.77,South,188,7.0,18.0,61,0.00,,,0.00,Wunderground v.1.15,2014-01-19 20:07:00,
2014-01-19 15:09:00,29.2,17.4,-32.77,WSW,254,7.0,18.0,61,0.00,,,0.00,Wunderground v.1.15,2014-01-19 20:09:00,
2014-01-19 15:11:00,29.2,17.4,-32.77,SW,225,7.0,8.0,61,0.00,,,0.00,Wunderground v.1.15,2014-01-19 20:11:00,
2014-01-19 15:12:00,29.2,17.4,-32.77,SW,217,7.0,8.0,61,0.00,,,0.00,Wunderground v.1.15,2014-01-19 20:12:00,
2014-01-19 15:15:00,29.2,17.8,-32.77,SSW,212,8.0,10.0,62,0.00,,,0.00,Wunderground v.1.15,2014-01-19 20:15:00,
2014-01-19 15:16:00,29.1,17.7,-32.77,SSW,194,8.0,10.0,62,0.00,,,0.00,Wunderground v.1.15,2014-01-19 20:16:00,
2014-01-19 15:17:00,29.1,17.7,-32.77,WSW,237,8.0,10.0,62,0.00,,,0.00,Wunderground v.1.15,2014-01-19 20:17:00,
2014-01-19 15:19:00,29.1,17.7,-32.77,WSW,257,8.0,10.0,62,0.00,,,0.00,Wunderground v.1.15,2014-01-19 20:19:00,
2014-01-19 15:23:00,29.2,17.4,-32.77,SSE,164,8.0,9.0,61,0.00,,,0.00,Wunderground v.1.15,2014-01-19 20:23:00,
2014-01-19 15:24:00,29.2,17.4,-32.77,West,265,8.0,15.0,61,0.00,,,0.00,Wunderground v.1.15,2014-01-19 20:24:00,
2014-01-19 15:26:00,29.2,17.4,-32.77,WSW,253,9.0,15.0,61,0.00,,,0.00,Wunderground v.1.15,2014-01-19 20:26:00,
2014-01-19 15:28:00,29.3,17.5,-32.77,WSW,244,9.0,15.0,61,0.00,,,0.00,Wunderground v.1.15,2014-01-19 20:28:00,
2014-01-19 15:29:00,29.3,17.5,-32.77,West,259,9.0,15.0,61,0.00,,,0.00,Wunderground v.1.15,2014-01-19 20:29:00,
2014-01-19 15:30:00,29.3,17.5,-32.77,SW,215,8.0,8.0,61,0.00,,,0.00,Wunderground v.1.15,2014-01-19 20:30:00,
2014-01-19 15:31:00,29.3,17.5,-32.77,WSW,240,8.0,8.0,61,0.00,,,0.00,Wunderground v.1.15,2014-01-19 20:31:00,
2014-01-19 15:34:00,29.3,17.5,-32.77,SSE,153,8.0,18.0,61,0.00,,,0.00,Wunderground v.1.15,2014-01-19 20:34:00,
2014-01-19 15:36:00,29.4,18.0,-32.77,SW,236,8.0,18.0,62,0.00,,,0.00,Wunderground v.1.15,2014-01-19 20:36:00,
2014-01-19 15:39:00,29.4,18.0,-32.77,WSW,248,7.0,18.0,62,0.00,,,0.00,Wunderground v.1.15,2014-01-19 20:39:00,
2014-01-19 15:40:00,29.4,18.0,-32.77,WSW,253,7.0,8.0,62,0.00,,,0.00,Wunderground v.1.15,2014-01-19 20:40:00,
2014-01-19 15:41:00,29.4,17.6,-32.77,WSW,241,8.0,8.0,61,0.00,,,0.00,Wunderground v.1.15,2014-01-19 20:41:00,
2014-01-19 15:44:00,29.5,18.1,-32.77,SSE,152,7.0,12.0,62,0.00,,,0.00,Wunderground v.1.15,2014-01-19 20:44:00,
2014-01-19 15:45:00,29.5,18.1,-32.77,SSE,164,7.0,12.0,62,0.00,,,0.00,Wunderground v.1.15,2014-01-19 20:45:00,
2014-01-19 15:51:00,29.6,18.2,-32.77,SSW,211,7.0,8.0,62,0.00,,,0.00,Wunderground v.1.15,2014-01-19 20:51:00,
2014-01-19 15:52:00,29.6,18.2,-32.77,South,186,7.0,8.0,62,0.00,,,0.00,Wunderground v.1.15,2014-01-19 20:52:00,
2014-01-19 15:53:00,29.6,18.2,-32.77,NW,321,6.0,8.0,62,0.00,,,0.00,Wunderground v.1.15,2014-01-19 20:53:00,
2014-01-19 15:54:00,29.6,18.2,-32.77,WSW,248,6.0,9.0,62,0.00,,,0.00,Wunderground v.1.15,2014-01-19 20:54:00,
2014-01-19 15:55:00,29.6,18.2,-32.77,WSW,249,6.0,9.0,62,0.00,,,0.00,Wunderground v.1.15,2014-01-19 20:55:00,
2014-01-19 15:57:00,29.6,18.2,-32.77,SSW,206,7.0,9.0,62,0.00,,,0.00,Wunderground v.1.15,2014-01-19 20:57:00,
2014-01-19 16:00:00,29.7,18.3,-32.77,West,260,6.0,8.0,62,0.00,,,0.00,Wunderground v.1.15,2014-01-19 21:00:00,
2014-01-19 16:01:00,29.7,18.3,-32.77,WSW,242,6.0,9.0,62,0.00,,,0.00,Wunderground v.1.15,2014-01-19 21:01:00,
2014-01-19 16:02:00,29.7,18.3,-32.77,SSW,210,6.0,9.0,62,0.00,,,0.00,Wunderground v.1.15,2014-01-19 21:02:00,
2014-01-19 16:03:00,29.7,18.3,-32.77,South,183,6.0,9.0,62,0.00,,,0.00,Wunderground v.1.15,2014-01-19 21:03:00,
2014-01-19 16:06:00,29.7,18.3,-32.77,SW,218,6.0,11.0,62,0.00,,,0.00,Wunderground v.1.15,2014-01-19 21:06:00,
2014-01-19 16:07:00,29.7,18.3,-32.77,WSW,245,6.0,11.0,62,0.00,,,0.00,Wunderground v.1.15,2014-01-19 21:07:00,
2014-01-19 16:11:00,29.7,18.6,-32.77,SSW,209,5.0,5.0,63,0.00,,,0.00,Wunderground v.1.15,2014-01-19 21:11:00,
2014-01-19 16:12:00,29.7,18.6,-32.77,WSW,249,4.0,7.0,63,0.00,,,0.00,Wunderground v.1.15,2014-01-19 21:12:00,
2014-01-19 16:13:00,29.7,18.3,-32.77,WSW,246,5.0,7.0,62,0.00,,,0.00,Wunderground v.1.15,2014-01-19 21:13:00,
2014-01-19 16:17:00,29.8,18.7,-32.77,SSW,202,5.0,7.0,63,0.00,,,0.00,Wunderground v.1.15,2014-01-19 21:17:00,
2014-01-19 16:18:00,29.8,18.7,-32.77,SW,227,5.0,7.0,63,0.00,,,0.00,Wunderground v.1.15,2014-01-19 21:18:00,
2014-01-19 16:20:00,29.9,18.8,-32.77,WNW,295,5.0,14.0,63,0.00,,,0.00,Wunderground v.1.15,2014-01-19 21:20:00,
2014-01-19 16:21:00,29.9,18.8,-32.77,SW,217,6.0,14.0,63,0.00,,,0.00,Wunderground v.1.15,2014-01-19 21:21:00,
2014-01-19 16:23:00,30.0,18.9,-32.77,SSW,207,7.0,14.0,63,0.00,,,0.00,Wunderground v.1.15,2014-01-19 21:23:00,
2014-01-19 16:25:00,30.1,19.0,-32.77,WSW,254,7.0,15.0,63,0.00,,,0.00,Wunderground v.1.15,2014-01-19 21:25:00,
2014-01-19 16:27:00,30.1,19.4,-32.77,SW,225,7.0,15.0,64,0.00,,,0.00,Wunderground v.1.15,2014-01-19 21:27:00,
2014-01-19 16:28:00,30.1,19.0,-32.77,SSE,163,7.0,15.0,63,0.00,,,0.00,Wunderground v.1.15,2014-01-19 21:28:00,
2014-01-19 16:29:00,30.1,19.0,-32.77,WSW,242,7.0,15.0,63,0.00,,,0.00,Wunderground v.1.15,2014-01-19 21:29:00,
2014-01-19 16:30:00,30.1,19.0,-32.77,West,268,7.0,7.0,63,0.00,,,0.00,Wunderground v.1.15,2014-01-19 21:30:00,
2014-01-19 16:31:00,30.1,19.0,-32.77,WSW,248,6.0,7.0,63,0.00,,,0.00,Wunderground v.1.15,2014-01-19 21:31:00,
2014-01-19 16:32:00,30.1,19.4,-32.77,West,265,6.0,7.0,64,0.00,,,0.00,Wunderground v.1.15,2014-01-19 21:32:00,
2014-01-19 16:35:00,30.2,19.1,-32.77,South,175,6.0,8.0,63,0.00,,,0.00,Wunderground v.1.15,2014-01-19 21:35:00,
2014-01-19 16:38:00,30.2,19.5,-32.77,SW,214,6.0,8.0,64,0.00,,,0.00,Wunderground v.1.15,2014-01-19 21:38:00,
2014-01-19 16:39:00,30.2,19.5,-32.77,SSE,160,6.0,8.0,64,0.00,,,0.00,Wunderground v.1.15,2014-01-19 21:39:00,
2014-01-19 16:40:00,30.2,19.5,-32.77,WSW,250,6.0,6.0,64,0.00,,,0.00,Wunderground v.1.15,2014-01-19 21:40:00,
2014-01-19 16:44:00,30.2,19.5,-32.77,SW,220,5.0,10.0,64,0.00,,,0.00,Wunderground v.1.15,2014-01-19 21:44:00,
2014-01-19 16:45:00,30.2,19.5,-32.77,WNW,290,5.0,10.0,64,0.00,,,0.00,Wunderground v.1.15,2014-01-19 21:45:00,
2014-01-19 16:46:00,30.2,19.5,-32.77,SW,231,5.0,10.0,64,0.00,,,0.00,Wunderground v.1.15,2014-01-19 21:46:00,
2014-01-19 16:49:00,30.2,19.5,-32.77,SW,225,5.0,10.0,64,0.00,,,0.00,Wunderground v.1.15,2014-01-19 21:49:00,
2014-01-19 16:51:00,30.2,19.5,-32.77,SW,231,5.0,6.0,64,0.00,,,0.00,Wunderground v.1.15,2014-01-19 21:51:00,
2014-01-19 16:53:00,30.2,19.5,-32.77,WSW,248,5.0,10.0,64,0.00,,,0.00,Wunderground v.1.15,2014-01-19 21:53:00,
2014-01-19 16:54:00,30.2,19.5,-32.77,WNW,299,5.0,10.0,64,0.00,,,0.00,Wunderground v.1.15,2014-01-19 21:54:00,
2014-01-19 16:55:00,30.2,19.8,-32.77,SSW,209,5.0,10.0,65,0.00,,,0.00,Wunderground v.1.15,2014-01-19 21:55:00,
2014-01-19 16:57:00,30.2,19.8,-32.77,SW,221,5.0,10.0,65,0.00,,,0.00,Wunderground v.1.15,2014-01-19 21:57:00,
2014-01-19 17:00:00,30.2,19.8,-32.77,SW,216,6.0,6.0,65,0.00,,,0.00,Wunderground v.1.15,2014-01-19 22:00:00,
2014-01-19 17:03:00,30.2,19.5,-32.77,WSW,255,5.0,6.0,64,0.00,,,0.00,Wunderground v.1.15,2014-01-19 22:03:00,
2014-01-19 17:04:00,30.2,19.5,-32.77,SW,232,5.0,6.0,64,0.00,,,0.00,Wunderground v.1.15,2014-01-19 22:04:00,
2014-01-19 17:05:00,30.2,19.5,-32.77,SSW,197,4.0,6.0,64,0.00,,,0.00,Wunderground v.1.15,2014-01-19 22:05:00,
2014-01-19 17:06:00,30.3,19.9,-32.77,WSW,254,4.0,6.0,65,0.00,,,0.00,Wunderground v.1.15,2014-01-19 22:06:00,
2014-01-19 17:11:00,30.3,19.9,-32.77,WSW,246,5.0,10.0,65,0.00,,,0.00,Wunderground v.1.15,2014-01-19 22:11:00,
2014-01-19 17:12:00,30.2,19.8,-32.77,SSW,208,5.0,10.0,65,0.00,,,0.00,Wunderground v.1.15,2014-01-19 22:12:00,
2014-01-19 17:14:00,30.2,19.8,-32.77,WSW,250,5.0,18.0,65,0.00,,,0.00,Wunderground v.1.15,2014-01-19 22:14:00,
2014-01-19 17:18:00,30.3,19.9,-32.77,West,260,6.0,18.0,65,0.00,,,0.00,Wunderground v.1.15,2014-01-19 22:18:00,
2014-01-19 17:20:00,30.3,19.9,-32.77,West,259,6.0,6.0,65,0.00,,,0.00,Wunderground v.1.15,2014-01-19 22:20:00,
2014-01-19 17:21:00,30.3,19.9,-32.77,West,276,6.0,7.0,65,0.00,,,0.00,Wunderground v.1.15,2014-01-19 22:21:00,
2014-01-19 17:26:00,30.4,20.0,-32.77,WSW,250,5.0,8.0,65,0.00,,,0.00,Wunderground v.1.15,2014-01-19 22:26:00,
2014-01-19 17:27:00,30.4,20.4,-32.77,West,275,5.0,8.0,66,0.00,,,0.00,Wunderground v.1.15,2014-01-19 22:27:00,
2014-01-19 17:28:00,30.4,20.4,-32.77,WNW,288,5.0,8.0,66,0.00,,,0.00,Wunderground v.1.15,2014-01-19 22:28:00,
2014-01-19 17:32:00,30.4,20.4,-32.77,SW,225,5.0,6.0,66,0.00,,,0.00,Wunderground v.1.15,2014-01-19 22:32:00,
2014-01-19 17:34:00,30.4,20.4,-32.77,SSW,193,5.0,6.0,66,0.00,,,0.00,Wunderground v.1.15,2014-01-19 22:34:00,
2014-01-19 17:35:00,30.4,20.0,-32.77,West,263,5.0,6.0,65,0.00,,,0.00,Wunderground v.1.15,2014-01-19 22:35:00,
2014-01-19 17:37:00,30.4,20.4,-32.77,South,174,5.0,6.0,66,0.00,,,0.00,Wunderground v.1.15,2014-01-19 22:37:00,
2014-01-19 17:40:00,30.4,20.4,-32.77,WSW,255,4.0,4.0,66,0.00,,,0.00,Wunderground v.1.15,2014-01-19 22:40:00,
2014-01-19 17:41:00,30.4,20.4,-32.77,West,259,4.0,5.0,66,0.00,,,0.00,Wunderground v.1.15,2014-01-19 22:41:00,
2014-01-19 17:42:00,30.3,19.9,-32.77,SW,236,4.0,5.0,65,0.00,,,0.00,Wunderground v.1.15,2014-01-19 22:42:00,
2014-01-19 17:43:00,30.3,20.3,-32.77,WSW,246,3.0,5.0,66,0.00,,,0.00,Wunderground v.1.15,2014-01-19 22:43:00,
2014-01-19 17:44:00,30.3,20.3,-32.77,West,259,4.0,5.0,66,0.00,,,0.00,Wunderground v.1.15,2014-01-19 22:44:00,
2014-01-19 17:47:00,30.3,20.3,-32.77,West,270,3.0,5.0,66,0.00,,,0.00,Wunderground v.1.15,2014-01-19 22:47:00,
2014-01-19 17:48:00,30.3,20.3,-32.77,WSW,238,4.0,5.0,66,0.00,,,0.00,Wunderground v.1.15,2014-01-19 22:48:00,
2014-01-19 17:49:00,30.3,20.3,-32.77,WSW,256,4.0,5.0,66,0.00,,,0.00,Wunderground v.1.15,2014-01-19 22:49:00,
2014-01-19 17:52:00,30.3,20.6,-32.77,SW,236,4.0,4.0,67,0.00,,,0.00,Wunderground v.1.15,2014-01-19 22:52:00,
2014-01-19 17:54:00,30.3,20.6,-32.77,WSW,242,4.0,4.0,67,0.00,,,0.00,Wunderground v.1.15,2014-01-19 22:54:00,
2014-01-19 17:55:00,30.4,20.7,-32.77,WNW,299,4.0,6.0,67,0.00,,,0.00,Wunderground v.1.15,2014-01-19 22:55:00,
2014-01-19 17:57:00,30.4,20.7,-32.77,WNW,295,5.0,11.0,67,0.00,,,0.00,Wunderground v.1.15,2014-01-19 22:57:00,
2014-01-19 17:58:00,30.5,20.8,-32.77,WSW,240,5.0,11.0,67,0.00,,,0.00,Wunderground v.1.15,2014-01-19 22:58:00,
2014-01-19 18:00:00,30.6,20.9,-32.77,WNW,298,6.0,14.0,67,0.00,,,0.00,Wunderground v.1.15,2014-01-19 23:00:00,
2014-01-19 18:02:00,30.7,21.0,-32.77,West,263,6.0,14.0,67,0.00,,,0.00,Wunderground v.1.15,2014-01-19 23:02:00,
2014-01-19 18:04:00,30.7,20.7,-32.77,WSW,237,7.0,14.0,66,0.00,,,0.00,Wunderground v.1.15,2014-01-19 23:04:00,
2014-01-19 18:06:00,30.7,21.0,-32.77,SW,215,7.0,14.0,67,0.00,,,0.00,Wunderground v.1.15,2014-01-19 23:06:00,
2014-01-19 18:08:00,30.8,21.1,-32.77,West,262,6.0,14.0,67,0.00,,,0.00,Wunderground v.1.15,2014-01-19 23:08:00,
2014-01-19 18:10:00,30.7,20.7,-32.77,WNW,290,5.0,9.0,66,0.00,,,0.00,Wunderground v.1.15,2014-01-19 23:10:00,
2014-01-19 18:13:00,30.8,21.1,-32.77,West,260,5.0,10.0,67,0.00,,,0.00,Wunderground v.1.15,2014-01-19 23:13:00,
2014-01-19 18:16:00,30.8,21.1,-32.77,West,269,5.0,10.0,67,0.00,,,0.00,Wunderground v.1.15,2014-01-19 23:16:00,
2014-01-19 18:18:00,30.8,21.1,-32.77,West,268,5.0,10.0,67,0.00,,,0.00,Wunderground v.1.15,2014-01-19 23:18:00,
2014-01-19 18:19:00,30.8,21.5,-32.77,NW,306,5.0,10.0,68,0.00,,,0.00,Wunderground v.1.15,2014-01-19 23:19:00,
2014-01-19 18:21:00,30.8,21.1,-32.77,West,273,6.0,6.0,67,0.00,,,0.00,Wunderground v.1.15,2014-01-19 23:21:00,
2014-01-19 18:23:00,30.9,21.2,-32.77,SW,234,5.0,6.0,67,0.00,,,0.00,Wunderground v.1.15,2014-01-19 23:23:00,
2014-01-19 18:25:00,30.9,21.2,-32.77,WSW,237,5.0,6.0,67,0.00,,,0.00,Wunderground v.1.15,2014-01-19 23:25:00,
2014-01-19 18:28:00,30.9,21.2,-32.77,SW,230,5.0,14.0,67,0.00,,,0.00,Wunderground v.1.15,2014-01-19 23:28:00,
2014-01-19 18:30:00,30.9,22.9,-32.77,West,265,5.0,10.0,72,0.00,,,0.00,Wunderground v.1.15,2014-01-19 23:30:00,
2014-01-19 18:31:00,30.9,22.9,-32.77,West,259,5.0,10.0,72,0.00,,,0.00,Wunderground v.1.15,2014-01-19 23:31:00,
2014-01-19 18:33:00,30.9,21.2,-32.77,WSW,254,6.0,13.0,67,0.00,,,0.00,Wunderground v.1.15,2014-01-19 23:33:00,
2014-01-19 18:34:00,31.0,21.3,-32.77,WSW,248,7.0,13.0,67,0.00,,,0.00,Wunderground v.1.15,2014-01-19 23:34:00,
2014-01-19 18:36:00,31.0,21.7,-32.77,NW,324,7.0,13.0,68,0.00,,,0.00,Wunderground v.1.15,2014-01-19 23:36:00,
2014-01-19 18:40:00,31.0,21.3,-32.77,West,266,6.0,6.0,67,0.00,,,0.00,Wunderground v.1.15,2014-01-19 23:40:00,
2014-01-19 18:41:00,31.0,21.7,-32.77,WNW,300,6.0,8.0,68,0.00,,,0.00,Wunderground v.1.15,2014-01-19 23:41:00,
2014-01-19 18:43:00,31.0,21.3,-32.77,WSW,252,6.0,10.0,67,0.00,,,0.00,Wunderground v.1.15,2014-01-19 23:43:00,
2014-01-19 18:45:00,31.0,21.3,-32.77,WSW,238,5.0,10.0,67,0.00,,,0.00,Wunderground v.1.15,2014-01-19 23:45:00,
2014-01-19 18:49:00,31.0,21.7,-32.77,West,262,6.0,10.0,68,0.00,,,0.00,Wunderground v.1.15,2014-01-19 23:49:00,
2014-01-19 18:51:00,31.0,21.3,-32.77,WSW,253,6.0,7.0,67,0.00,,,0.00,Wunderground v.1.15,2014-01-19 23:51:00,
2014-01-19 18:52:00,31.0,21.7,-32.77,WSW,242,6.0,7.0,68,0.00,,,0.00,Wunderground v.1.15,2014-01-19 23:52:00,
2014-01-19 18:53:00,31.0,21.7,-32.77,SW,234,6.0,7.0,68,0.00,,,0.00,Wunderground v.1.15,2014-01-19 23:53:00,
2014-01-19 18:54:00,31.0,21.7,-32.77,SW,236,6.0,7.0,68,0.00,,,0.00,Wunderground v.1.15,2014-01-19 23:54:00,
2014-01-19 18:57:00,31.0,21.7,-32.77,WSW,247,5.0,11.0,68,0.00,,,0.00,Wunderground v.1.15,2014-01-19 23:57:00,
2014-01-19 18:58:00,31.0,21.7,-32.77,WSW,255,6.0,11.0,68,0.00,,,0.00,Wunderground v.1.15,2014-01-19 23:58:00,
2014-01-19 19:00:00,31.0,21.7,-32.77,West,271,6.0,8.0,68,0.00,,,0.00,Wunderground v.1.15,2014-01-20 00:00:00,
2014-01-19 19:04:00,31.1,21.8,-32.77,SW,230,6.0,11.0,68,0.00,,,0.00,Wunderground v.1.15,2014-01-20 00:04:00,
2014-01-19 19:05:00,31.1,21.8,-32.77,SSW,203,7.0,11.0,68,0.00,,,0.00,Wunderground v.1.15,2014-01-20 00:05:00,
2014-01-19 19:06:00,31.1,21.8,-32.77,WNW,292,7.0,11.0,68,0.00,,,0.00,Wunderground v.1.15,2014-01-20 00:06:00,
2014-01-19 19:09:00,31.1,22.1,-32.77,West,263,6.0,11.0,69,0.00,,,0.00,Wunderground v.1.15,2014-01-20 00:09:00,
2014-01-19 19:11:00,31.1,21.8,-32.77,WSW,247,6.0,16.0,68,0.00,,,0.00,Wunderground v.1.15,2014-01-20 00:11:00,
2014-01-19 19:15:00,31.1,21.8,-32.77,West,262,6.0,16.0,68,0.00,,,0.00,Wunderground v.1.15,2014-01-20 00:15:00,
2014-01-19 19:16:00,31.1,21.8,-32.77,WSW,257,6.0,16.0,68,0.00,,,0.00,Wunderground v.1.15,2014-01-20 00:16:00,
2014-01-19 19:17:00,31.1,21.8,-32.77,WSW,258,6.0,16.0,68,0.00,,,0.00,Wunderground v.1.15,2014-01-20 00:17:00,
2014-01-19 19:18:00,31.1,21.8,-32.77,WNW,296,6.0,16.0,68,0.00,,,0.00,Wunderground v.1.15,2014-01-20 00:18:00,
2014-01-19 19:20:00,31.1,21.8,-32.77,West,261,8.0,10.0,68,0.00,,,0.00,Wunderground v.1.15,2014-01-20 00:20:00,
2014-01-19 19:24:00,31.2,21.9,-32.77,SSW,203,9.0,13.0,68,0.00,,,0.00,Wunderground v.1.15,2014-01-20 00:24:00,
2014-01-19 19:25:00,31.2,21.9,-32.77,West,265,8.0,13.0,68,0.00,,,0.00,Wunderground v.1.15,2014-01-20 00:25:00,
2014-01-19 19:26:00,31.2,21.9,-32.77,West,273,8.0,13.0,68,0.00,,,0.00,Wunderground v.1.15,2014-01-20 00:26:00,
2014-01-19 19:27:00,31.2,21.9,-32.77,West,281,8.0,13.0,68,0.00,,,0.00,Wunderground v.1.15,2014-01-20 00:27:00,
2014-01-19 19:28:00,31.2,21.9,-32.77,West,267,8.0,13.0,68,0.00,,,0.00,Wunderground v.1.15,2014-01-20 00:28:00,
2014-01-19 19:29:00,31.2,22.2,-32.77,West,268,8.0,13.0,69,0.00,,,0.00,Wunderground v.1.15,2014-01-20 00:29:00,
2014-01-19 19:31:00,31.1,22.1,-32.77,NW,313,7.0,7.0,69,0.00,,,0.00,Wunderground v.1.15,2014-01-20 00:31:00,
2014-01-19 19:34:00,31.1,22.1,-32.77,West,260,5.0,8.0,69,0.00,,,0.00,Wunderground v.1.15,2014-01-20 00:34:00,
2014-01-19 19:36:00,31.0,22.0,-32.77,West,280,5.0,8.0,69,0.00,,,0.00,Wunderground v.1.15,2014-01-20 00:36:00,
2014-01-19 19:38:00,31.0,22.0,-32.77,West,269,4.0,8.0,69,0.00,,,0.00,Wunderground v.1.15,2014-01-20 00:38:00,
2014-01-19 19:40:00,31.0,22.0,-32.77,WSW,252,4.0,6.0,69,0.00,,,0.00,Wunderground v.1.15,2014-01-20 00:40:00,
2014-01-19 19:41:00,31.0,22.0,-32.77,West,277,4.0,8.0,69,0.00,,,0.00,Wunderground v.1.15,2014-01-20 00:41:00,
2014-01-19 19:45:00,31.0,22.0,-32.77,West,268,5.0,12.0,69,0.00,,,0.00,Wunderground v.1.15,2014-01-20 00:45:00,
2014-01-19 19:47:00,31.0,22.0,-32.77,WSW,256,5.0,12.0,69,0.00,,,0.00,Wunderground v.1.15,2014-01-20 00:47:00,
2014-01-19 19:48:00,31.0,22.0,-32.77,WSW,242,5.0,12.0,69,0.00,,,0.00,Wunderground v.1.15,2014-01-20 00:48:00,
2014-01-19 19:49:00,31.0,22.0,-32.77,West,275,5.0,12.0,69,0.00,,,0.00,Wunderground v.1.15,2014-01-20 00:49:00,
2014-01-19 19:50:00,31.0,22.0,-32.77,West,273,5.0,5.0,69,0.00,,,0.00,Wunderground v.1.15,2014-01-20 00:50:00,
2014-01-19 19:51:00,31.0,22.4,-32.77,West,269,6.0,6.0,70,0.00,,,0.00,Wunderground v.1.15,2014-01-20 00:51:00,
2014-01-19 19:53:00,30.9,22.3,-32.77,WNW,295,6.0,6.0,70,0.00,,,0.00,Wunderground v.1.15,2014-01-20 00:53:00,
2014-01-19 19:54:00,30.9,22.3,-32.77,NW,311,5.0,12.0,70,0.00,,,0.00,Wunderground v.1.15,2014-01-20 00:54:00,
2014-01-19 19:55:00,30.9,22.3,-32.77,West,266,5.0,12.0,70,0.00,,,0.00,Wunderground v.1.15,2014-01-20 00:55:00,
2014-01-19 19:56:00,30.8,22.2,-32.77,WSW,240,5.0,12.0,70,0.00,,,0.00,Wunderground v.1.15,2014-01-20 00:56:00,
2014-01-19 19:59:00,30.8,22.2,-32.77,West,259,7.0,12.0,70,0.00,,,0.00,Wunderground v.1.15,2014-01-20 00:59:00,
2014-01-19 20:01:00,30.8,22.5,-32.77,WNW,284,8.0,8.0,71,0.00,,,0.00,Wunderground v.1.15,2014-01-20 01:01:00,
2014-01-19 20:02:00,30.7,22.7,-32.77,WNW,286,8.0,9.0,72,0.00,,,0.00,Wunderground v.1.15,2014-01-20 01:02:00,
2014-01-19 20:06:00,30.6,22.6,-32.77,WSW,253,8.0,9.0,72,0.00,,,0.00,Wunderground v.1.15,2014-01-20 01:06:00,
2014-01-19 20:07:00,30.6,23.0,-32.77,West,281,8.0,9.0,73,0.00,,,0.00,Wunderground v.1.15,2014-01-20 01:07:00,
2014-01-19 20:08:00,30.5,22.9,-32.77,WNW,288,8.0,13.0,73,0.00,,,0.00,Wunderground v.1.15,2014-01-20 01:08:00,
2014-01-19 20:10:00,30.5,22.9,-32.77,WNW,292,8.0,8.0,73,0.00,,,0.00,Wunderground v.1.15,2014-01-20 01:10:00,
2014-01-19 20:11:00,30.4,22.8,-32.77,NW,310,8.0,8.0,73,0.00,,,0.00,Wunderground v.1.15,2014-01-20 01:11:00,
2014-01-19 20:12:00,30.4,22.8,-32.77,West,277,8.0,14.0,73,0.00,,,0.00,Wunderground v.1.15,2014-01-20 01:12:00,
2014-01-19 20:13:00,30.3,23.0,-32.77,West,261,8.0,14.0,74,0.00,,,0.00,Wunderground v.1.15,2014-01-20 01:13:00,
2014-01-19 20:16:00,30.2,22.9,-32.77,WNW,287,8.0,14.0,74,0.00,,,0.00,Wunderground v.1.15,2014-01-20 01:16:00,
2014-01-19 20:18:00,30.2,22.9,-32.77,WNW,286,8.0,14.0,74,0.00,,,0.00,Wunderground v.1.15,2014-01-20 01:18:00,
2014-01-19 20:20:00,30.1,22.8,-32.77,WNW,300,8.0,8.0,74,0.00,,,0.00,Wunderground v.1.15,2014-01-20 01:20:00,
2014-01-19 20:22:00,30.1,23.1,-32.77,West,280,7.0,8.0,75,0.00,,,0.00,Wunderground v.1.15,2014-01-20 01:22:00,
2014-01-19 20:25:00,30.0,23.0,-32.77,West,259,7.0,8.0,75,0.00,,,0.00,Wunderground v.1.15,2014-01-20 01:25:00,
2014-01-19 20:26:00,30.0,23.0,-32.77,WNW,286,7.0,8.0,75,0.00,,,0.00,Wunderground v.1.15,2014-01-20 01:26:00,
2014-01-19 20:27:00,30.0,23.0,-32.77,WNW,284,6.0,8.0,75,0.00,,,0.00,Wunderground v.1.15,2014-01-20 01:27:00,
2014-01-19 20:28:00,30.0,23.0,-32.77,WSW,248,6.0,8.0,75,0.00,,,0.00,Wunderground v.1.15,2014-01-20 01:28:00,
2014-01-19 20:30:00,30.0,23.4,-32.77,WNW,286,5.0,5.0,76,0.00,,,0.00,Wunderground v.1.15,2014-01-20 01:30:00,
2014-01-19 20:31:00,29.9,23.3,-32.77,WNW,288,5.0,5.0,76,0.00,,,0.00,Wunderground v.1.15,2014-01-20 01:31:00,
2014-01-19 20:33:00,29.9,23.3,-32.77,SW,215,4.0,5.0,76,0.00,,,0.00,Wunderground v.1.15,2014-01-20 01:33:00,
2014-01-19 20:34:00,29.9,23.3,-32.77,West,279,4.0,5.0,76,0.00,,,0.00,Wunderground v.1.15,2014-01-20 01:34:00,
2014-01-19 20:36:00,29.9,23.3,-32.77,NW,306,3.0,5.0,76,0.00,,,0.00,Wunderground v.1.15,2014-01-20 01:36:00,
2014-01-19 20:37:00,29.9,23.3,-32.77,WSW,249,3.0,5.0,76,0.00,,,0.00,Wunderground v.1.15,2014-01-20 01:37:00,
2014-01-19 20:39:00,29.8,23.2,-32.77,WNW,287,3.0,5.0,76,0.00,,,0.00,Wunderground v.1.15,2014-01-20 01:39:00,
2014-01-19 20:41:00,29.8,23.2,-32.77,WNW,286,1.0,4.0,76,0.00,,,0.00,Wunderground v.1.15,2014-01-20 01:41:00,
2014-01-19 20:45:00,29.8,23.2,-32.77,WNW,302,1.0,4.0,76,0.00,,,0.00,Wunderground v.1.15,2014-01-20 01:45:00,
2014-01-19 20:46:00,29.8,23.2,-32.77,WSW,240,2.0,4.0,76,0.00,,,0.00,Wunderground v.1.15,2014-01-20 01:46:00,
2014-01-19 20:48:00,29.8,23.2,-32.77,West,267,2.0,4.0,76,0.00,,,0.00,Wunderground v.1.15,2014-01-20 01:48:00,
2014-01-19 20:50:00,29.8,23.2,-32.77,West,262,3.0,4.0,76,0.00,,,0.00,Wunderground v.1.15,2014-01-20 01:50:00,
2014-01-19 20:51:00,29.8,23.2,-32.77,West,261,3.0,5.0,76,0.00,,,0.00,Wunderground v.1.15,2014-01-20 01:51:00,
2014-01-19 20:54:00,29.8,23.5,-32.77,WNW,298,5.0,7.0,77,0.00,,,0.00,Wunderground v.1.15,2014-01-20 01:54:00,
2014-01-19 20:55:00,29.8,23.5,-32.77,WSW,245,5.0,7.0,77,0.00,,,0.00,Wunderground v.1.15,2014-01-20 01:55:00,
2014-01-19 20:56:00,29.7,23.4,-32.77,SW,226,5.0,7.0,77,0.00,,,0.00,Wunderground v.1.15,2014-01-20 01:56:00,
2014-01-19 20:58:00,29.7,23.4,-32.77,NW,321,5.0,7.0,77,0.00,,,0.00,Wunderground v.1.15,2014-01-20 01:58:00,
2014-01-19 21:00:00,29.7,23.4,-32.77,WSW,257,5.0,5.0,77,0.00,,,0.00,Wunderground v.1.15,2014-01-20 02:00:00,
2014-01-19 21:02:00,29.7,23.1,-32.77,West,281,5.0,7.0,76,0.00,,,0.00,Wunderground v.1.15,2014-01-20 02:02:00,
2014-01-19 21:05:00,29.7,23.4,-32.77,NW,311,4.0,7.0,77,0.00,,,0.00,Wunderground v.1.15,2014-01-20 02:05:00,
2014-01-19 21:06:00,29.7,23.4,-32.77,NW,307,4.0,7.0,77,0.00,,,0.00,Wunderground v.1.15,2014-01-20 02:06:00,
2014-01-19 21:08:00,29.6,23.3,-32.77,NW,321,4.0,7.0,77,0.00,,,0.00,Wunderground v.1.15,2014-01-20 02:08:00,
2014-01-19 21:09:00,29.6,23.3,-32.77,West,275,3.0,4.0,77,0.00,,,0.00,Wunderground v.1.15,2014-01-20 02:09:00,
2014-01-19 21:15:00,29.6,23.3,-32.77,WNW,300,4.0,5.0,77,0.00,,,0.00,Wunderground v.1.15,2014-01-20 02:15:00,
2014-01-19 21:16:00,29.6,23.3,-32.77,WNW,286,4.0,5.0,77,0.00,,,0.00,Wunderground v.1.15,2014-01-20 02:16:00,
2014-01-19 21:17:00,29.5,23.2,-32.77,NW,317,5.0,5.0,77,0.00,,,0.00,Wunderground v.1.15,2014-01-20 02:17:00,
2014-01-19 21:19:00,29.5,23.5,-32.77,West,278,5.0,5.0,78,0.00,,,0.00,Wunderground v.1.15,2014-01-20 02:19:00,
2014-01-19 21:22:00,29.5,23.5,-32.77,WNW,285,5.0,5.0,78,0.00,,,0.00,Wunderground v.1.15,2014-01-20 02:22:00,
2014-01-19 21:23:00,29.4,23.4,-32.77,WNW,298,4.0,5.0,78,0.00,,,0.00,Wunderground v.1.15,2014-01-20 02:23:00,
2014-01-19 21:24:00,29.4,23.4,-32.77,West,279,4.0,5.0,78,0.00,,,0.00,Wunderground v.1.15,2014-01-20 02:24:00,
2014-01-19 21:26:00,29.4,23.4,-32.77,WNW,285,4.0,5.0,78,0.00,,,0.00,Wunderground v.1.15,2014-01-20 02:26:00,
2014-01-19 21:27:00,29.4,23.4,-32.77,WNW,302,4.0,5.0,78,0.00,,,0.00,Wunderground v.1.15,2014-01-20 02:27:00,
2014-01-19 21:28:00,29.4,23.4,-32.77,WNW,284,3.0,5.0,78,0.00,,,0.00,Wunderground v.1.15,2014-01-20 02:28:00,
2014-01-19 21:29:00,29.4,23.4,-32.77,WSW,244,3.0,5.0,78,0.00,,,0.00,Wunderground v.1.15,2014-01-20 02:29:00,
2014-01-19 21:31:00,29.4,23.4,-32.77,West,261,3.0,4.0,78,0.00,,,0.00,Wunderground v.1.15,2014-01-20 02:31:00,
2014-01-19 21:35:00,29.3,23.6,-32.77,WNW,290,3.0,4.0,79,0.00,,,0.00,Wunderground v.1.15,2014-01-20 02:35:00,
2014-01-19 21:38:00,29.3,23.6,-32.77,WNW,286,3.0,4.0,79,0.00,,,0.00,Wunderground v.1.15,2014-01-20 02:38:00,
2014-01-19 21:40:00,29.3,23.6,-32.77,WNW,286,3.0,4.0,79,0.00,,,0.00,Wunderground v.1.15,2014-01-20 02:40:00,
2014-01-19 21:43:00,29.3,23.3,-32.77,SW,233,3.0,8.0,78,0.00,,,0.00,Wunderground v.1.15,2014-01-20 02:43:00,
2014-01-19 21:45:00,29.3,23.3,-32.77,WSW,254,3.0,8.0,78,0.00,,,0.00,Wunderground v.1.15,2014-01-20 02:45:00,
2014-01-19 21:48:00,29.3,23.3,-32.77,NW,317,4.0,9.0,78,0.00,,,0.00,Wunderground v.1.15,2014-01-20 02:48:00,
2014-01-19 21:49:00,29.3,23.3,-32.77,West,260,4.0,9.0,78,0.00,,,0.00,Wunderground v.1.15,2014-01-20 02:49:00,
2014-01-19 21:50:00,29.3,23.3,-32.77,West,261,4.0,4.0,78,0.00,,,0.00,Wunderground v.1.15,2014-01-20 02:50:00,
2014-01-19 21:54:00,29.3,23.3,-32.77,WNW,299,4.0,5.0,78,0.00,,,0.00,Wunderground v.1.15,2014-01-20 02:54:00,
2014-01-19 21:55:00,29.4,23.4,-32.77,NW,313,4.0,6.0,78,0.00,,,0.00,Wunderground v.1.15,2014-01-20 02:55:00,
2014-01-19 21:57:00,29.4,23.4,-32.77,West,269,4.0,6.0,78,0.00,,,0.00,Wunderground v.1.15,2014-01-20 02:57:00,
2014-01-19 22:00:00,29.4,23.4,-32.77,WNW,287,4.0,4.0,78,0.00,,,0.00,Wunderground v.1.15,2014-01-20 03:00:00,
2014-01-19 22:01:00,29.4,23.4,-32.77,WSW,254,4.0,4.0,78,0.00,,,0.00,Wunderground v.1.15,2014-01-20 03:01:00,
2014-01-19 22:03:00,29.4,23.4,-32.77,West,278,4.0,6.0,78,0.00,,,0.00,Wunderground v.1.15,2014-01-20 03:03:00,
2014-01-19 22:04:00,29.4,23.4,-32.77,West,259,4.0,6.0,78,0.00,,,0.00,Wunderground v.1.15,2014-01-20 03:04:00,
2014-01-19 22:09:00,29.4,23.4,-32.77,WNW,288,4.0,6.0,78,0.00,,,0.00,Wunderground v.1.15,2014-01-20 03:09:00,
2014-01-19 22:10:00,29.4,23.4,-32.77,West,265,3.0,4.0,78,0.00,,,0.00,Wunderground v.1.15,2014-01-20 03:10:00,
2014-01-19 22:13:00,29.3,23.3,-32.77,West,278,4.0,7.0,78,0.00,,,0.00,Wunderground v.1.15,2014-01-20 03:13:00,
2014-01-19 22:14:00,29.4,23.4,-32.77,WSW,251,4.0,7.0,78,0.00,,,0.00,Wunderground v.1.15,2014-01-20 03:14:00,
2014-01-19 22:17:00,29.4,23.4,-32.77,WNW,286,4.0,7.0,78,0.00,,,0.00,Wunderground v.1.15,2014-01-20 03:17:00,
2014-01-19 22:18:00,29.4,23.4,-32.77,WNW,286,4.0,7.0,78,0.00,,,0.00,Wunderground v.1.15,2014-01-20 03:18:00,
2014-01-19 22:19:00,29.4,23.4,-32.77,WSW,257,4.0,7.0,78,0.00,,,0.00,Wunderground v.1.15,2014-01-20 03:19:00,
2014-01-19 22:20:00,29.4,23.4,-32.77,West,264,4.0,4.0,78,0.00,,,0.00,Wunderground v.1.15,2014-01-20 03:20:00,
2014-01-19 22:21:00,29.4,23.4,-32.77,WSW,258,4.0,4.0,78,0.00,,,0.00,Wunderground v.1.15,2014-01-20 03:21:00,
2014-01-19 22:22:00,29.4,23.4,-32.77,West,263,4.0,8.0,78,0.00,,,0.00,Wunderground v.1.15,2014-01-20 03:22:00,
2014-01-19 22:24:00,29.4,23.4,-32.77,WSW,238,3.0,8.0,78,0.00,,,0.00,Wunderground v.1.15,2014-01-20 03:24:00,
2014-01-19 22:26:00,29.4,23.4,-32.77,West,269,4.0,8.0,78,0.00,,,0.00,Wunderground v.1.15,2014-01-20 03:26:00,
2014-01-19 22:27:00,29.4,23.4,-32.77,West,269,4.0,8.0,78,0.00,,,0.00,Wunderground v.1.15,2014-01-20 03:27:00,
2014-01-19 22:30:00,29.4,23.4,-32.77,West,261,4.0,4.0,78,0.00,,,0.00,Wunderground v.1.15,2014-01-20 03:30:00,
2014-01-19 22:31:00,29.4,23.4,-32.77,WNW,299,4.0,4.0,78,0.00,,,0.00,Wunderground v.1.15,2014-01-20 03:31:00,
2014-01-19 22:33:00,29.4,23.4,-32.77,West,265,4.0,6.0,78,0.00,,,0.00,Wunderground v.1.15,2014-01-20 03:33:00,
2014-01-19 22:36:00,29.4,23.4,-32.77,West,274,4.0,6.0,78,0.00,,,0.00,Wunderground v.1.15,2014-01-20 03:36:00,
2014-01-19 22:37:00,29.4,23.1,-32.77,WSW,255,4.0,6.0,77,0.00,,,0.00,Wunderground v.1.15,2014-01-20 03:37:00,
2014-01-19 22:39:00,29.4,23.1,-32.77,West,259,4.0,6.0,77,0.00,,,0.00,Wunderground v.1.15,2014-01-20 03:39:00,
2014-01-19 22:41:00,29.4,23.1,-32.77,WSW,254,4.0,4.0,77,0.00,,,0.00,Wunderground v.1.15,2014-01-20 03:41:00,
2014-01-19 22:43:00,29.4,23.1,-32.77,WNW,292,4.0,6.0,77,0.00,,,0.00,Wunderground v.1.15,2014-01-20 03:43:00,
2014-01-19 22:44:00,29.4,23.1,-32.77,WNW,283,3.0,6.0,77,0.00,,,0.00,Wunderground v.1.15,2014-01-20 03:44:00,
2014-01-19 22:48:00,29.5,23.2,-32.77,WSW,256,4.0,7.0,77,0.00,,,0.00,Wunderground v.1.15,2014-01-20 03:48:00,
2014-01-19 22:50:00,29.5,23.2,-32.77,West,267,5.0,7.0,77,0.00,,,0.00,Wunderground v.1.15,2014-01-20 03:50:00,
2014-01-19 22:51:00,29.5,23.2,-32.77,WSW,249,5.0,7.0,77,0.00,,,0.00,Wunderground v.1.15,2014-01-20 03:51:00,
2014-01-19 22:54:00,29.6,23.3,-32.77,WNW,298,5.0,7.0,77,0.00,,,0.00,Wunderground v.1.15,2014-01-20 03:54:00,
2014-01-19 22:55:00,29.6,23.3,-32.77,WSW,256,5.0,7.0,77,0.00,,,0.00,Wunderground v.1.15,2014-01-20 03:55:00,
2014-01-19 22:57:00,29.6,23.3,-32.77,WNW,290,5.0,7.0,77,0.00,,,0.00,Wunderground v.1.15,2014-01-20 03:57:00,
2014-01-19 23:00:00,29.6,23.3,-32.77,WNW,294,4.0,5.0,77,0.00,,,0.00,Wunderground v.1.15,2014-01-20 04:00:00,
2014-01-19 23:01:00,29.5,23.2,-32.77,West,270,4.0,5.0,77,0.00,,,0.00,Wunderground v.1.15,2014-01-20 04:01:00,
2014-01-19 23:04:00,29.6,23.3,-32.77,West,278,4.0,5.0,77,0.00,,,0.00,Wunderground v.1.15,2014-01-20 04:04:00,
2014-01-19 23:05:00,29.6,23.3,-32.77,NW,309,4.0,11.0,77,0.00,,,0.00,Wunderground v.1.15,2014-01-20 04:05:00,
2014-01-19 23:06:00,29.6,23.0,-32.77,WSW,246,5.0,11.0,76,0.00,,,0.00,Wunderground v.1.15,2014-01-20 04:06:00,
2014-01-19 23:08:00,29.7,23.1,-32.77,NNW,329,5.0,11.0,76,0.00,,,0.00,Wunderground v.1.15,2014-01-20 04:08:00,
2014-01-19 23:09:00,29.7,23.1,-32.77,NW,322,6.0,6.0,76,0.00,,,0.00,Wunderground v.1.15,2014-01-20 04:09:00,
2014-01-19 23:11:00,29.7,23.1,-32.77,WSW,254,6.0,6.0,76,0.00,,,0.00,Wunderground v.1.15,2014-01-20 04:11:00,
2014-01-19 23:13:00,29.7,23.1,-32.77,WSW,243,6.0,6.0,76,0.00,,,0.00,Wunderground v.1.15,2014-01-20 04:13:00,
2014-01-19 23:15:00,29.7,23.1,-32.77,WNW,282,6.0,6.0,76,0.00,,,0.00,Wunderground v.1.15,2014-01-20 04:15:00,
2014-01-19 23:17:00,29.7,23.1,-32.77,West,271,5.0,6.0,76,0.00,,,0.00,Wunderground v.1.15,2014-01-20 04:17:00,
2014-01-19 23:19:00,29.8,23.2,-32.77,WNW,293,5.0,6.0,76,0.00,,,0.00,Wunderground v.1.15,2014-01-20 04:19:00,
2014-01-19 23:21:00,29.8,23.2,-32.77,West,275,4.0,6.0,76,0.00,,,0.00,Wunderground v.1.15,2014-01-20 04:21:00,
2014-01-19 23:22:00,29.8,22.8,-32.77,WNW,289,4.0,7.0,75,0.00,,,0.00,Wunderground v.1.15,2014-01-20 04:22:00,
2014-01-19 23:23:00,29.8,22.8,-32.77,SSW,210,4.0,7.0,75,0.00,,,0.00,Wunderground v.1.15,2014-01-20 04:23:00,
2014-01-19 23:24:00,29.8,22.8,-32.77,WSW,252,4.0,7.0,75,0.00,,,0.00,Wunderground v.1.15,2014-01-20 04:24:00,
2014-01-19 23:27:00,29.9,22.9,-32.77,West,275,4.0,7.0,75,0.00,,,0.00,Wunderground v.1.15,2014-01-20 04:27:00,
2014-01-19 23:29:00,29.9,22.9,-32.77,WSW,252,4.0,7.0,75,0.00,,,0.00,Wunderground v.1.15,2014-01-20 04:29:00,
2014-01-19 23:30:00,29.9,23.3,-32.77,NW,321,4.0,4.0,76,0.00,,,0.00,Wunderground v.1.15,2014-01-20 04:30:00,
2014-01-19 23:31:00,29.9,22.9,-32.77,WNW,290,4.0,6.0,75,0.00,,,0.00,Wunderground v.1.15,2014-01-20 04:31:00,
2014-01-19 23:36:00,29.9,22.9,-32.77,West,270,4.0,6.0,75,0.00,,,0.00,Wunderground v.1.15,2014-01-20 04:36:00,
2014-01-19 23:37:00,30.0,23.0,-32.77,WSW,248,4.0,11.0,75,0.00,,,0.00,Wunderground v.1.15,2014-01-20 04:37:00,
2014-01-19 23:40:00,30.0,23.0,-32.77,West,265,5.0,14.0,75,0.00,,,0.00,Wunderground v.1.15,2014-01-20 04:40:00,
2014-01-19 23:41:00,30.1,22.8,-32.77,West,275,6.0,14.0,74,0.00,,,0.00,Wunderground v.1.15,2014-01-20 04:41:00,
2014-01-19 23:42:00,30.1,22.8,-32.77,West,270,6.0,14.0,74,0.00,,,0.00,Wunderground v.1.15,2014-01-20 04:42:00,
2014-01-19 23:43:00,30.2,22.9,-32.77,West,277,7.0,14.0,74,0.00,,,0.00,Wunderground v.1.15,2014-01-20 04:43:00,
2014-01-19 23:46:00,30.3,23.0,-32.77,West,278,8.0,14.0,74,0.00,,,0.00,Wunderground v.1.15,2014-01-20 04:46:00,
2014-01-19 23:49:00,30.3,23.0,-32.77,West,275,8.0,14.0,74,0.00,,,0.00,Wunderground v.1.15,2014-01-20 04:49:00,
2014-01-19 23:50:00,30.4,22.8,-32.77,WNW,296,8.0,8.0,73,0.00,,,0.00,Wunderground v.1.15,2014-01-20 04:50:00,
2014-01-19 23:53:00,30.4,23.1,-32.77,WSW,246,7.0,8.0,74,0.00,,,0.00,Wunderground v.1.15,2014-01-20 04:53:00,
2014-01-19 23:55:00,30.4,23.1,-32.77,WNW,295,6.0,9.0,74,0.00,,,0.00,Wunderground v.1.15,2014-01-20 04:55:00,
2014-01-19 23:56:00,30.4,23.1,-32.77,WNW,287,6.0,9.0,74,0.00,,,0.00,Wunderground v.1.15,2014-01-20 04:56:00,
2014-01-19 23:58:00,30.4,23.1,-32.77,WSW,250,6.0,9.0,74,0.00,,,0.00,Wunderground v.1.15,2014-01-20 04:58:00,
2014-01-19 23:59:00,30.4,23.1,-32.77,WSW,250,6.0,7.0,74,0.00,,,0.00,Wunderground v.1.15,2014-01-20 04:59:00,